FW6030 Weather Reports


time (UTC)temp
C
wind
direction
speed
KPH
gust
KPH
rain 1hr
cm
rain 24hr
cm
rain mn
cm
humidity
%
barometer
mb
20260906193419 36 360 9.7 17.7 0.00 0.00 0.00 51 1014.3
20260906193320 36 360 9.7 17.7 0.00 0.00 0.00 51 1014.3
20260906193220 36 360 9.7 17.7 0.00 0.00 0.00 51 1014.3
20260906193121 36 298 6.4 17.7 0.00 0.00 0.00 51 1014.3
20260906193022 36 360 4.8 16.1 0.00 0.00 0.00 50 1014.4
20260906192926 36 360 3.2 14.5 0.00 0.00 0.00 50 1014.3
20260906192828 36 76 4.8 14.5 0.00 0.00 0.00 50 1014.3
20260906192748 36 360 6.4 14.5 0.00 0.00 0.00 51 1014.3
20260906192626 36 360 6.4 14.5 0.00 0.00 0.00 49 1014.3
20260906192527 37 360 8.0 14.5 0.00 0.00 0.00 50 1014.4
20260906192428 37 360 4.8 16.1 0.00 0.00 0.00 49 1014.3
20260906192348 37 360 3.2 16.1 0.00 0.00 0.00 48 1014.3
20260906192231 37 360 1.6 16.1 0.00 0.00 0.00 49 1014.4
20260906192152 37 360 3.2 16.1 0.00 0.00 0.00 49 1014.4
20260906192031 37 360 3.2 16.1 0.00 0.00 0.00 50 1014.4
20260906191930 37 360 3.2 16.1 0.00 0.00 0.00 50 1014.4
20260906191830 36 360 3.2 16.1 0.00 0.00 0.00 51 1014.4
20260906191730 36 360 4.8 16.1 0.00 0.00 0.00 52 1014.4
20260906191631 36 360 3.2 16.1 0.00 0.00 0.00 53 1014.4
20260906191552 36 360 1.6 9.7 0.00 0.00 0.00 52 1014.4
20260906191435 36 360 1.6 9.7 0.00 0.00 0.00 52 1014.4
20260906191316 36 360 1.6 9.7 0.00 0.00 0.00 51 1014.5
20260906191217 36 360 3.2 9.7 0.00 0.00 0.00 51 1014.5
20260906191117 36 360 3.2 9.7 0.00 0.00 0.00 50 1014.5
20260906191018 36 360 4.8 9.7 0.00 0.00 0.00 50 1014.5
20260906190919 36 360 4.8 9.7 0.00 0.00 0.00 50 1014.5
20260906190823 36 360 4.8 9.7 0.00 0.00 0.00 51 1014.6
20260906190724 36 360 3.2 9.7 0.00 0.00 0.00 52 1014.6
20260906190624 36 360 3.2 14.5 0.00 0.00 0.00 53 1014.6
20260906190544 36 360 3.2 14.5 0.00 0.00 0.00 53 1014.7
20260906190425 36 360 3.2 14.5 0.00 0.00 0.00 52 1014.7
20260906190345 35 360 1.6 14.5 0.00 0.00 0.00 52 1014.6
20260906190224 35 360 1.6 14.5 0.00 0.00 0.00 52 1014.6
20260906190125 35 360 3.2 14.5 0.00 0.00 0.00 54 1014.7
20260906190029 35 360 6.4 14.5 0.00 0.00 0.00 54 1014.7
20260906185950 35 360 4.8 16.1 0.00 0.00 0.00 56 1014.7
20260906185830 35 360 3.2 16.1 0.00 0.00 0.00 55 1014.7
20260906185729 35 360 3.2 16.1 0.00 0.00 0.00 55 1014.7
20260906185630 35 360 4.8 16.1 0.00 0.00 0.00 54 1014.8
20260906185530 35 360 8.0 16.1 0.00 0.00 0.00 55 1014.7
20260906185430 35 360 8.0 16.1 0.00 0.00 0.00 55 1014.7
20260906185315 35 360 6.4 16.1 0.00 0.00 0.00 55 1014.7
20260906185235 35 360 6.4 16.1 0.00 0.00 0.00 55 1014.7
20260906185156 35 360 6.4 16.1 0.00 0.00 0.00 54 1014.8
20260906185037 35 360 6.4 16.1 0.00 0.00 0.00 55 1014.7
20260906184916 35 360 6.4 16.1 0.00 0.00 0.00 54 1014.7
20260906184816 35 360 6.4 16.1 0.00 0.00 0.00 54 1014.7
20260906184717 35 360 6.4 14.5 0.00 0.00 0.00 54 1014.8
20260906184619 35 360 4.8 14.5 0.00 0.00 0.00 55 1014.8
20260906184520 35 360 4.8 14.5 0.00 0.00 0.00 55 1014.8
20260906184420 35 360 3.2 14.5 0.00 0.00 0.00 55 1014.9
20260906184320 35 360 3.2 14.5 0.00 0.00 0.00 56 1014.9
20260906184241 34 360 4.8 14.5 0.00 0.00 0.00 56 1014.9
20260906184121 34 360 4.8 14.5 0.00 0.00 0.00 56 1014.8
20260906184041 33 360 4.8 19.3 0.00 0.00 0.00 57 1014.8
20260906183920 33 360 4.8 19.3 0.00 0.00 0.00 58 1014.9
20260906183825 33 360 4.8 19.3 0.00 0.00 0.00 57 1014.8
20260906183726 33 360 6.4 19.3 0.00 0.00 0.00 56 1014.9
20260906183626 33 360 6.4 19.3 0.00 0.00 0.00 56 1014.8
20260906183528 33 360 4.8 19.3 0.00 0.00 0.00 57 1014.9
20260906183429 33 360 8.0 19.3 0.00 0.00 0.00 58 1014.8
20260906183328 33 360 9.7 19.3 0.00 0.00 0.00 58 1014.9
20260906183233 33 360 9.7 19.3 0.00 0.00 0.00 57 1014.9
20260906183133 34 360 6.4 19.3 0.00 0.00 0.00 56 1014.9
20260906183034 34 360 4.8 14.5 0.00 0.00 0.00 55 1015.0
20260906182935 34 360 4.8 14.5 0.00 0.00 0.00 56 1014.9
20260906182816 34 360 6.4 14.5 0.00 0.00 0.00 55 1015.0
20260906182717 35 360 6.4 14.5 0.00 0.00 0.00 54 1015.0
20260906182620 35 360 4.8 9.7 0.00 0.00 0.00 54 1015.0
20260906182521 35 360 3.2 8.0 0.00 0.00 0.00 54 1015.0
20260906182421 35 360 3.2 8.0 0.00 0.00 0.00 55 1015.0
20260906182321 34 360 1.6 8.0 0.00 0.00 0.00 57 1015.0
20260906182222 33 360 3.2 8.0 0.00 0.00 0.00 57 1014.9
20260906182143 33 360 3.2 8.0 0.00 0.00 0.00 58 1015.0
20260906182022 33 301 4.8 8.0 0.00 0.00 0.00 58 1015.0
20260906181927 33 360 4.8 12.9 0.00 0.00 0.00 57 1015.0
20260906181828 33 360 4.8 12.9 0.00 0.00 0.00 58 1015.0
20260906181747 33 360 4.8 12.9 0.00 0.00 0.00 58 1015.0
20260906181627 33 360 4.8 12.9 0.00 0.00 0.00 58 1015.1
20260906181529 32 360 4.8 14.5 0.00 0.00 0.00 59 1015.0
20260906181449 32 14 4.8 14.5 0.00 0.00 0.00 59 1015.0
20260906181328 32 360 6.4 14.5 0.00 0.00 0.00 58 1015.0
20260906181229 32 360 6.4 14.5 0.00 0.00 0.00 58 1015.0
20260906181134 32 360 6.4 14.5 0.00 0.00 0.00 59 1015.1
20260906181035 32 360 6.4 14.5 0.00 0.00 0.00 59 1015.1
20260906180936 32 360 8.0 14.5 0.00 0.00 0.00 59 1015.1
20260906180837 33 360 8.0 14.5 0.00 0.00 0.00 57 1015.3
20260906180735 33 360 8.0 14.5 0.00 0.00 0.00 57 1015.2
20260906180616 33 360 8.0 14.5 0.00 0.00 0.00 57 1015.2
20260906180520 33 23 6.4 12.9 0.00 0.00 0.00 57 1015.3
20260906180421 33 360 4.8 12.9 0.00 0.00 0.00 57 1015.2
20260906180321 33 360 3.2 12.9 0.00 0.00 0.00 59 1015.2
20260906180221 33 360 3.2 12.9 0.00 0.00 0.00 59 1015.2
20260906180122 33 360 4.8 12.9 0.00 0.00 0.00 60 1015.3
20260906180043 32 360 6.4 12.9 0.00 0.00 0.00 59 1015.3
20260906175923 32 360 6.4 12.9 0.00 0.00 0.00 59 1015.3
20260906175829 33 360 4.8 9.7 0.00 0.00 0.00 59 1015.4
20260906175728 33 360 6.4 8.0 0.00 0.00 0.00 60 1015.3
20260906175629 32 360 6.4 8.0 0.00 0.00 0.00 60 1015.4
20260906175530 32 360 6.4 8.0 0.00 0.00 0.00 60 1015.5
20260906175430 32 351 6.4 12.9 0.00 0.00 0.00 59 1015.4
20260906175331 32 360 6.4 12.9 0.00 0.00 0.00 60 1015.5
20260906175230 32 360 4.8 12.9 0.00 0.00 0.00 61 1015.5
20260906175135 32 360 4.8 12.9 0.00 0.00 0.00 61 1015.6
20260906175035 32 360 4.8 12.9 0.00 0.00 0.00 61 1015.5
20260906174916 32 51 3.2 12.9 0.00 0.00 0.00 61 1015.6
20260906174835 32 52 3.2 12.9 0.00 0.00 0.00 63 1015.5
20260906174756 32 30 6.4 12.9 0.00 0.00 0.00 62 1015.6
20260906174655 32 360 6.4 12.9 0.00 0.00 0.00 62 1015.6
20260906174535 32 360 6.4 12.9 0.00 0.00 0.00 62 1015.5
20260906174419 32 360 4.8 12.9 0.00 0.00 0.00 63 1015.6
20260906174320 31 44 4.8 12.9 0.00 0.00 0.00 64 1015.6
20260906174220 31 360 4.8 12.9 0.00 0.00 0.00 64 1015.6
20260906174121 31 360 3.2 12.9 0.00 0.00 0.00 65 1015.6
20260906174021 31 360 3.2 12.9 0.00 0.00 0.00 65 1015.7
20260906173921 31 360 4.8 12.9 0.00 0.00 0.00 65 1015.6
20260906173821 31 360 6.4 12.9 0.00 0.00 0.00 65 1015.7
20260906173725 31 360 6.4 12.9 0.00 0.00 0.00 65 1015.6
20260906173626 31 360 6.4 12.9 0.00 0.00 0.00 65 1015.7
20260906173526 31 360 6.4 12.9 0.00 0.00 0.00 65 1015.7
20260906173447 31 360 6.4 12.9 0.00 0.00 0.00 66 1015.6
20260906173347 31 360 4.8 9.7 0.00 0.00 0.00 66 1015.7
20260906173225 31 360 4.8 9.7 0.00 0.00 0.00 67 1015.8
20260906173126 31 360 4.8 9.7 0.00 0.00 0.00 67 1015.7
20260906173031 31 47 4.8 9.7 0.00 0.00 0.00 68 1015.8
20260906172932 30 360 4.8 9.7 0.00 0.00 0.00 68 1015.8
20260906172834 30 360 6.4 9.7 0.00 0.00 0.00 69 1015.8
20260906172733 30 360 4.8 9.7 0.00 0.00 0.00 69 1015.8
20260906172634 30 360 4.8 9.7 0.00 0.00 0.00 69 1015.9
20260906172535 30 360 4.8 9.7 0.00 0.00 0.00 70 1015.9
20260906172419 30 360 4.8 9.7 0.00 0.00 0.00 69 1015.9
20260906172339 30 360 4.8 9.7 0.00 0.00 0.00 69 1015.9
20260906172219 30 107 4.8 9.7 0.00 0.00 0.00 70 1016.0
20260906172120 30 360 6.4 9.7 0.00 0.00 0.00 70 1015.9
20260906172021 30 84 6.4 9.7 0.00 0.00 0.00 69 1015.9
20260906171922 30 360 6.4 9.7 0.00 0.00 0.00 69 1015.9
20260906171822 30 360 4.8 9.7 0.00 0.00 0.00 70 1016.0
20260906171722 30 86 4.8 8.0 0.00 0.00 0.00 70 1016.0
20260906171620 30 111 3.2 8.0 0.00 0.00 0.00 71 1016.0
20260906171525 30 360 3.2 9.7 0.00 0.00 0.00 71 1016.0
20260906171424 30 360 3.2 9.7 0.00 0.00 0.00 71 1016.0
20260906171325 30 360 3.2 9.7 0.00 0.00 0.00 71 1016.1
20260906171225 30 360 4.8 9.7 0.00 0.00 0.00 71 1016.1
20260906171126 30 360 4.8 9.7 0.00 0.00 0.00 72 1016.1
20260906171028 30 360 6.4 9.7 0.00 0.00 0.00 72 1016.2
20260906170934 30 360 6.4 9.7 0.00 0.00 0.00 72 1016.1
20260906170834 30 360 6.4 11.3 0.00 0.00 0.00 71 1016.2
20260906170735 30 360 6.4 11.3 0.00 0.00 0.00 71 1016.1
20260906170656 30 360 6.4 11.3 0.00 0.00 0.00 70 1016.2
20260906170555 30 360 4.8 9.7 0.00 0.00 0.00 70 1016.2
20260906170433 30 84 4.8 9.7 0.00 0.00 0.00 67 1016.2
20260906170334 30 360 6.4 9.7 0.00 0.00 0.00 66 1016.3
20260906170234 30 13 6.4 11.3 0.00 0.00 0.00 67 1016.2
20260906170118 30 13 6.4 11.3 0.00 0.00 0.00 67 1016.2
20260906170018 30 86 4.8 8.0 0.00 0.00 0.00 67 1016.3
20260906165918 30 74 3.2 6.4 0.00 0.00 0.00 67 1016.2
20260906165820 30 360 1.6 6.4 0.00 0.00 0.00 67 1016.2
20260906165720 30 360 1.6 6.4 0.00 0.00 0.00 67 1016.2
20260906165620 30 72 3.2 6.4 0.00 0.00 0.00 66 1016.2
20260906165525 30 75 3.2 6.4 0.00 0.00 0.00 66 1016.3
20260906165425 30 76 3.2 6.4 0.00 0.00 0.00 65 1016.2
20260906165325 30 76 4.8 6.4 0.00 0.00 0.00 65 1016.3
20260906165227 30 74 4.8 6.4 0.00 0.00 0.00 65 1016.3
20260906165127 31 360 4.8 6.4 0.00 0.00 0.00 66 1016.3
20260906165028 31 360 3.2 4.8 0.00 0.00 0.00 65 1016.3
20260906164929 31 360 3.2 6.4 0.00 0.00 0.00 65 1016.2
20260906164833 31 360 3.2 6.4 0.00 0.00 0.00 64 1016.3
20260906164734 31 77 3.2 6.4 0.00 0.00 0.00 64 1016.3
20260906164634 31 76 1.6 6.4 0.00 0.00 0.00 65 1016.3
20260906164534 31 78 3.2 6.4 0.00 0.00 0.00 65 1016.3
20260906164435 31 360 3.2 6.4 0.00 0.00 0.00 65 1016.3
20260906164335 31 348 3.2 6.4 0.00 0.00 0.00 65 1016.2
20260906164220 31 344 4.8 6.4 0.00 0.00 0.00 66 1016.2
20260906164120 30 348 4.8 6.4 0.00 0.00 0.00 67 1016.4
20260906164022 30 26 3.2 6.4 0.00 0.00 0.00 67 1016.4
20260906163923 30 360 3.2 4.8 0.00 0.00 0.00 67 1016.4
20260906163843 30 360 3.2 4.8 0.00 0.00 0.00 67 1016.3
20260906163716 31 94 1.6 4.8 0.00 0.00 0.00 66 1016.3
20260906163621 30 360 1.6 4.8 0.00 0.00 0.00 66 1016.3
20260906163521 30 360 3.2 4.8 0.00 0.00 0.00 66 1016.4
20260906163422 30 360 3.2 4.8 0.00 0.00 0.00 66 1016.2
20260906163321 30 360 3.2 4.8 0.00 0.00 0.00 66 1016.3
20260906163221 30 94 1.6 4.8 0.00 0.00 0.00 68 1016.3
20260906163123 30 360 1.6 4.8 0.00 0.00 0.00 68 1016.3
20260906163023 30 360 1.6 4.8 0.00 0.00 0.00 68 1016.3
20260906162927 30 94 1.6 4.8 0.00 0.00 0.00 68 1016.3
20260906162829 30 94 1.6 4.8 0.00 0.00 0.00 68 1016.3
20260906162729 30 360 1.6 4.8 0.00 0.00 0.00 68 1016.3
20260906162629 30 360 1.6 4.8 0.00 0.00 0.00 67 1016.3
20260906162549 30 360 1.6 4.8 0.00 0.00 0.00 68 1016.2
20260906162450 30 360 1.6 3.2 0.00 0.00 0.00 67 1016.3
20260906162329 30 360 3.2 3.2 0.00 0.00 0.00 67 1016.3
20260906162249 30 360 1.6 3.2 0.00 0.00 0.00 67 1016.2
20260906162133 30 360 1.6 3.2 0.00 0.00 0.00 67 1016.2
20260906162033 30 360 1.6 3.2 0.00 0.00 0.00 68 1016.4
20260906161934 30 360 1.6 9.7 0.00 0.00 0.00 68 1016.2
20260906161834 30 360 1.6 9.7 0.00 0.00 0.00 68 1016.3
20260906161755 30 360 0.0 9.7 0.00 0.00 0.00 69 1016.3
20260906161634 30 360 0.0 9.7 0.00 0.00 0.00 70 1016.2
20260906161535 30 360 1.6 9.7 0.00 0.00 0.00 69 1016.2
20260906161419 30 360 1.6 9.7 0.00 0.00 0.00 71 1016.3
20260906161319 30 360 3.2 9.7 0.00 0.00 0.00 71 1016.3
20260906161220 30 360 3.2 9.7 0.00 0.00 0.00 71 1016.4
20260906161141 30 360 4.8 9.7 0.00 0.00 0.00 71 1016.3
20260906161021 30 91 3.2 9.7 0.00 0.00 0.00 71 1016.3
20260906160920 30 360 3.2 9.7 0.00 0.00 0.00 73 1016.3
20260906160821 30 360 3.2 8.0 0.00 0.00 0.00 73 1016.4
20260906160725 30 360 4.8 8.0 0.00 0.00 0.00 73 1016.4
20260906160625 30 360 4.8 8.0 0.00 0.00 0.00 74 1016.3
20260906160547 30 360 4.8 8.0 0.00 0.00 0.00 74 1016.3
20260906160426 30 360 4.8 8.0 0.00 0.00 0.00 74 1016.3
20260906160326 29 360 4.8 8.0 0.00 0.00 0.00 75 1016.4
20260906160227 29 360 4.8 8.0 0.00 0.00 0.00 75 1016.3
20260906160128 29 81 4.8 8.0 0.00 0.00 0.00 75 1016.4
20260906160032 29 360 3.2 8.0 0.00 0.00 0.00 75 1016.4
20260906155933 29 61 3.2 8.0 0.00 0.00 0.00 75 1016.4
20260906155834 29 63 3.2 6.4 0.00 0.00 0.00 75 1016.4
20260906155734 29 100 3.2 6.4 0.00 0.00 0.00 75 1016.4
20260906155656 29 100 4.8 6.4 0.00 0.00 0.00 75 1016.3
20260906155555 29 98 4.8 6.4 0.00 0.00 0.00 74 1016.4
20260906155434 30 360 3.2 6.4 0.00 0.00 0.00 74 1016.4
20260906155319 30 360 1.6 6.4 0.00 0.00 0.00 75 1016.4
20260906155218 29 360 0.0 4.8 0.00 0.00 0.00 76 1016.3
20260906155118 29 360 0.0 4.8 0.00 0.00 0.00 76 1016.4
20260906155018 29 360 1.6 4.8 0.00 0.00 0.00 75 1016.4
20260906154920 29 360 1.6 4.8 0.00 0.00 0.00 75 1016.3
20260906154820 29 360 1.6 4.8 0.00 0.00 0.00 75 1016.3
20260906154721 29 360 1.6 4.8 0.00 0.00 0.00 75 1016.3
20260906154625 29 360 1.6 4.8 0.00 0.00 0.00 75 1016.3
20260906154527 29 360 1.6 4.8 0.00 0.00 0.00 76 1016.3
20260906154427 29 360 3.2 4.8 0.00 0.00 0.00 76 1016.3
20260906154327 29 360 3.2 4.8 0.00 0.00 0.00 75 1016.3
20260906154247 29 360 3.2 4.8 0.00 0.00 0.00 75 1016.3
20260906154126 29 360 1.6 4.8 0.00 0.00 0.00 75 1016.3
20260906154027 29 360 1.6 4.8 0.00 0.00 0.00 75 1016.3
20260906153931 29 360 0.0 4.8 0.00 0.00 0.00 75 1016.3
20260906153832 29 360 0.0 4.8 0.00 0.00 0.00 75 1016.4
20260906153733 28 360 0.0 4.8 0.00 0.00 0.00 76 1016.4
20260906153653 28 360 1.6 4.8 0.00 0.00 0.00 76 1016.4
20260906153531 28 360 1.6 4.8 0.00 0.00 0.00 76 1016.4
20260906153433 28 360 1.6 4.8 0.00 0.00 0.00 76 1016.3
20260906153333 28 360 3.2 4.8 0.00 0.00 0.00 76 1016.3
20260906153217 28 360 1.6 4.8 0.00 0.00 0.00 75 1016.3
20260906153118 28 360 1.6 4.8 0.00 0.00 0.00 75 1016.2
20260906153018 28 360 1.6 4.8 0.00 0.00 0.00 75 1016.2
20260906152939 28 360 1.6 4.8 0.00 0.00 0.00 75 1016.3
20260906152819 28 360 1.6 4.8 0.00 0.00 0.00 75 1016.3
20260906152739 28 360 1.6 4.8 0.00 0.00 0.00 75 1016.4
20260906152617 28 360 1.6 4.8 0.00 0.00 0.00 75 1016.3
20260906152517 28 360 1.6 4.8 0.00 0.00 0.00 75 1016.3
20260906152422 28 360 1.6 4.8 0.00 0.00 0.00 75 1016.2
20260906152321 28 360 1.6 3.2 0.00 0.00 0.00 75 1016.3
20260906152222 28 360 1.6 3.2 0.00 0.00 0.00 75 1016.2
20260906152123 28 360 1.6 3.2 0.00 0.00 0.00 75 1016.2
20260906152024 29 360 1.6 4.8 0.00 0.00 0.00 75 1016.2
20260906151945 29 360 1.6 4.8 0.00 0.00 0.00 75 1016.2
20260906151823 29 360 0.0 4.8 0.00 0.00 0.00 75 1016.2
20260906151727 29 360 0.0 6.4 0.00 0.00 0.00 76 1016.1
20260906151628 28 360 0.0 6.4 0.00 0.00 0.00 76 1016.1
20260906151528 28 360 0.0 6.4 0.00 0.00 0.00 76 1016.0
20260906151430 28 360 1.6 6.4 0.00 0.00 0.00 76 1016.0
20260906151330 28 360 3.2 6.4 0.00 0.00 0.00 76 1016.1
20260906151231 28 360 3.2 6.4 0.00 0.00 0.00 76 1016.0
20260906151132 28 360 3.2 6.4 0.00 0.00 0.00 76 1016.1
20260906151035 28 360 1.6 6.4 0.00 0.00 0.00 76 1016.1
20260906150916 28 360 1.6 6.4 0.00 0.00 0.00 77 1016.0
20260906150837 28 360 1.6 6.4 0.00 0.00 0.00 77 1016.1
20260906150757 28 360 1.6 6.4 0.00 0.00 0.00 78 1016.0
20260906150616 28 360 1.6 4.8 0.00 0.00 0.00 78 1015.9
20260906150516 28 360 1.6 8.0 0.00 0.00 0.00 79 1016.0
20260906150417 28 360 1.6 8.0 0.00 0.00 0.00 79 1015.9
20260906150321 28 205 1.6 8.0 0.00 0.00 0.00 79 1015.9
20260906150242 28 360 1.6 8.0 0.00 0.00 0.00 79 1015.9
20260906150204 28 360 1.6 8.0 0.00 0.00 0.00 79 1015.9
20260906150016 28 360 3.2 8.0 0.00 0.00 0.00 79 1015.9
20260906145937 28 360 3.2 8.0 0.00 0.00 0.00 79 1015.9
20260906145858 28 205 4.8 8.0 0.00 0.00 0.00 79 1015.9
20260906145757 28 360 4.8 8.0 0.00 0.00 0.00 79 1015.9
20260906145656 28 360 4.8 8.0 0.00 0.00 0.00 78 1015.9
20260906145556 28 360 4.8 8.0 0.00 0.00 0.00 78 1015.8
20260906145419 28 360 3.2 8.0 0.00 0.00 0.00 78 1015.8
20260906145320 28 360 3.2 8.0 0.00 0.00 0.00 78 1015.9
20260906145221 28 360 3.2 8.0 0.00 0.00 0.00 78 1015.9
20260906145122 28 360 4.8 12.9 0.00 0.00 0.00 77 1015.9
20260906145022 28 360 4.8 12.9 0.00 0.00 0.00 77 1015.9
20260906144924 28 360 3.2 12.9 0.00 0.00 0.00 77 1015.8
20260906144829 28 360 3.2 12.9 0.00 0.00 0.00 77 1015.9
20260906144730 28 360 3.2 12.9 0.00 0.00 0.00 77 1015.8
20260906144651 28 360 1.6 12.9 0.00 0.00 0.00 78 1015.8
20260906144530 28 360 3.2 12.9 0.00 0.00 0.00 78 1015.8
20260906144430 28 360 4.8 12.9 0.00 0.00 0.00 77 1015.8
20260906144351 28 360 6.4 12.9 0.00 0.00 0.00 77 1015.8
20260906144231 28 360 6.4 12.9 0.00 0.00 0.00 77 1015.8
20260906144153 28 360 6.4 11.3 0.00 0.00 0.00 76 1015.9
20260906144031 28 360 4.8 11.3 0.00 0.00 0.00 76 1015.8
20260906143935 28 360 3.2 9.7 0.00 0.00 0.00 76 1015.8
20260906143856 28 360 3.2 9.7 0.00 0.00 0.00 76 1015.9
20260906143716 28 360 4.8 9.7 0.00 0.00 0.00 76 1015.8
20260906143617 29 360 4.8 9.7 0.00 0.00 0.00 76 1015.9
20260906143518 29 360 3.2 9.7 0.00 0.00 0.00 77 1015.9
20260906143417 29 360 3.2 6.4 0.00 0.00 0.00 77 1015.8
20260906143318 28 360 3.2 8.0 0.00 0.00 0.00 77 1015.9
20260906143223 28 360 3.2 8.0 0.00 0.00 0.00 77 1015.9
20260906143123 28 360 1.6 8.0 0.00 0.00 0.00 78 1015.8
20260906143024 28 360 3.2 8.0 0.00 0.00 0.00 79 1015.8
20260906142925 28 360 3.2 8.0 0.00 0.00 0.00 79 1015.9
20260906142827 28 360 3.2 8.0 0.00 0.00 0.00 79 1015.8
20260906142727 28 360 4.8 8.0 0.00 0.00 0.00 79 1015.8
20260906142631 28 360 3.2 8.0 0.00 0.00 0.00 79 1015.9
20260906142531 28 360 3.2 8.0 0.00 0.00 0.00 80 1015.8
20260906142432 28 360 1.6 8.0 0.00 0.00 0.00 80 1015.9
20260906142332 28 360 3.2 12.9 0.00 0.00 0.00 81 1015.9
20260906142233 28 360 4.8 12.9 0.00 0.00 0.00 81 1015.7
20260906142132 28 360 4.8 12.9 0.00 0.00 0.00 80 1015.8
20260906142017 28 360 3.2 12.9 0.00 0.00 0.00 80 1015.8
20260906141917 28 360 1.6 12.9 0.00 0.00 0.00 81 1015.8
20260906141818 27 360 3.2 12.9 0.00 0.00 0.00 81 1015.6
20260906141739 27 360 6.4 12.9 0.00 0.00 0.00 81 1015.7
20260906141618 27 360 6.4 12.9 0.00 0.00 0.00 81 1015.6
20260906141539 27 360 6.4 12.9 0.00 0.00 0.00 81 1015.6
20260906141417 27 360 6.4 9.7 0.00 0.00 0.00 81 1015.7
20260906141317 27 360 6.4 12.9 0.00 0.00 0.00 81 1015.6
20260906141223 27 360 4.8 12.9 0.00 0.00 0.00 81 1015.6
20260906141143 27 360 4.8 12.9 0.00 0.00 0.00 81 1015.6
20260906141043 27 360 4.8 12.9 0.00 0.00 0.00 81 1015.6
20260906141004 27 360 4.8 12.9 0.00 0.00 0.00 82 1015.6
20260906140816 27 360 4.8 12.9 0.00 0.00 0.00 82 1015.6
20260906140717 27 203 6.4 12.9 0.00 0.00 0.00 82 1015.7
20260906140618 27 360 6.4 12.9 0.00 0.00 0.00 82 1015.7
20260906140518 27 360 8.0 12.9 0.00 0.00 0.00 81 1015.7
20260906140443 27 360 6.4 12.9 0.00 0.00 0.00 81 1015.7
20260906140316 27 360 6.4 12.9 0.00 0.00 0.00 81 1015.6
20260906140216 27 360 6.4 12.9 0.00 0.00 0.00 82 1015.6
20260906140117 27 360 6.4 12.9 0.00 0.00 0.00 82 1015.6
20260906140017 27 360 8.0 12.9 0.00 0.00 0.00 82 1015.7
20260906135918 27 360 9.7 12.9 0.00 0.00 0.00 82 1015.7
20260906135819 27 182 9.7 12.9 0.00 0.00 0.00 81 1015.7
20260906135722 27 360 9.7 14.5 0.00 0.00 0.00 82 1015.8
20260906135624 27 360 8.0 14.5 0.00 0.00 0.00 81 1015.6
20260906135524 27 360 6.4 14.5 0.00 0.00 0.00 81 1015.7
20260906135445 27 360 6.4 14.5 0.00 0.00 0.00 81 1015.6
20260906135323 27 360 8.0 14.5 0.00 0.00 0.00 81 1015.6
20260906135224 27 360 8.0 14.5 0.00 0.00 0.00 81 1015.6
20260906135125 27 360 6.4 14.5 0.00 0.00 0.00 81 1015.8
20260906135029 27 360 6.4 14.5 0.00 0.00 0.00 80 1015.6
20260906134930 27 360 4.8 14.5 0.00 0.00 0.00 80 1015.6
20260906134829 27 360 3.2 8.0 0.00 0.00 0.00 81 1015.6
20260906134750 27 360 1.6 8.0 0.00 0.00 0.00 81 1015.6
20260906134629 27 360 1.6 12.9 0.00 0.00 0.00 82 1015.6
20260906134529 27 360 1.6 12.9 0.00 0.00 0.00 82 1015.6
20260906134450 27 360 3.2 17.7 0.00 0.00 0.00 82 1015.6
20260906134328 27 360 3.2 17.7 0.00 0.00 0.00 82 1015.6
20260906134232 27 360 3.2 17.7 0.00 0.00 0.00 82 1015.6
20260906134132 27 360 3.2 17.7 0.00 0.00 0.00 82 1015.7
20260906134033 27 360 3.2 17.7 0.00 0.00 0.00 82 1015.5
20260906133934 27 360 4.8 17.7 0.00 0.00 0.00 82 1015.5
20260906133834 27 360 8.0 17.7 0.00 0.00 0.00 82 1015.5
20260906133734 27 360 9.7 17.7 0.00 0.00 0.00 82 1015.5
20260906133618 27 360 8.0 17.7 0.00 0.00 0.00 82 1015.5
20260906133520 27 360 8.0 14.5 0.00 0.00 0.00 82 1015.4
20260906133421 27 360 6.4 14.5 0.00 0.00 0.00 82 1015.4
20260906133320 27 360 6.4 14.5 0.00 0.00 0.00 83 1015.3
20260906133221 27 360 4.8 14.5 0.00 0.00 0.00 83 1015.3
20260906133122 27 185 6.4 16.1 0.00 0.00 0.00 83 1015.4
20260906133021 27 360 6.4 16.1 0.00 0.00 0.00 82 1015.4
20260906132942 27 360 6.4 16.1 0.00 0.00 0.00 82 1015.4
20260906132827 27 360 4.8 16.1 0.00 0.00 0.00 82 1015.4
20260906132726 27 360 3.2 16.1 0.00 0.00 0.00 82 1015.4
20260906132627 27 360 3.2 16.1 0.00 0.00 0.00 82 1015.3
20260906132527 27 360 1.6 16.1 0.00 0.00 0.00 82 1015.3
20260906132426 27 360 3.2 16.1 0.00 0.00 0.00 83 1015.2
20260906132327 26 360 4.8 16.1 0.00 0.00 0.00 83 1015.3
20260906132249 26 360 8.0 16.1 0.00 0.00 0.00 83 1015.3
20260906132129 26 360 9.7 16.1 0.00 0.00 0.00 83 1015.3
20260906132034 26 360 9.7 12.9 0.00 0.00 0.00 83 1015.4
20260906131955 26 360 8.0 12.9 0.00 0.00 0.00 83 1015.3
20260906131834 26 360 6.4 12.9 0.00 0.00 0.00 83 1015.3
20260906131754 26 360 4.8 9.7 0.00 0.00 0.00 83 1015.2
20260906131634 26 360 4.8 9.7 0.00 0.00 0.00 84 1015.4
20260906131534 26 360 4.8 9.7 0.00 0.00 0.00 84 1015.3
20260906131455 26 360 6.4 9.7 0.00 0.00 0.00 84 1015.3
20260906131318 26 360 6.4 9.7 0.00 0.00 0.00 84 1015.3
20260906131219 26 360 4.8 8.0 0.00 0.00 0.00 84 1015.3
20260906131119 26 360 4.8 8.0 0.00 0.00 0.00 83 1015.2
20260906131019 26 360 3.2 6.4 0.00 0.00 0.00 83 1015.2
20260906130940 26 360 1.6 4.8 0.00 0.00 0.00 84 1015.0
20260906130820 26 360 0.0 3.2 0.00 0.00 0.00 84 1015.1
20260906130720 26 360 0.0 0.0 0.00 0.00 0.00 83 1015.0
20260906130621 26 360 0.0 0.0 0.00 0.00 0.00 83 1015.0
20260906130525 26 360 0.0 0.0 0.00 0.00 0.00 83 1015.0
20260906130426 26 360 0.0 0.0 0.00 0.00 0.00 83 1015.0
20260906130326 26 360 0.0 0.0 0.00 0.00 0.00 83 1014.9
20260906130226 26 360 0.0 0.0 0.00 0.00 0.00 83 1014.8
20260906130127 26 360 0.0 0.0 0.00 0.00 0.00 84 1014.9
20260906130047 26 360 0.0 0.0 0.00 0.00 0.00 84 1015.0
20260906125927 26 360 0.0 0.0 0.00 0.00 0.00 84 1014.9
20260906125832 26 360 0.0 0.0 0.00 0.00 0.00 84 1014.9
20260906125730 26 360 0.0 0.0 0.00 0.00 0.00 84 1015.0
20260906125633 26 360 0.0 0.0 0.00 0.00 0.00 84 1015.0
20260906125534 26 360 0.0 0.0 0.00 0.00 0.00 84 1014.9
20260906125435 26 360 0.0 0.0 0.00 0.00 0.00 84 1015.0
20260906125335 26 360 0.0 0.0 0.00 0.00 0.00 84 1015.0
20260906125220 26 360 0.0 0.0 0.00 0.00 0.00 84 1015.0
20260906125120 26 360 0.0 0.0 0.00 0.00 0.00 84 1015.0
20260906125021 26 360 0.0 0.0 0.00 0.00 0.00 84 1015.0
20260906124921 26 360 0.0 0.0 0.00 0.00 0.00 84 1015.0
20260906124842 26 360 0.0 0.0 0.00 0.00 0.00 84 1015.0
20260906124721 25 360 0.0 0.0 0.00 0.00 0.00 84 1015.0
20260906124622 25 360 0.0 0.0 0.00 0.00 0.00 84 1014.9
20260906124526 25 360 0.0 0.0 0.00 0.00 0.00 84 1014.9
20260906124426 25 360 0.0 0.0 0.00 0.00 0.00 84 1015.0
20260906124327 25 360 0.0 0.0 0.00 0.00 0.00 84 1015.0
20260906124228 25 360 0.0 0.0 0.00 0.00 0.00 84 1014.9
20260906124129 25 360 0.0 0.0 0.00 0.00 0.00 84 1014.8
20260906124030 25 360 0.0 0.0 0.00 0.00 0.00 84 1014.9
20260906123929 25 360 0.0 0.0 0.00 0.00 0.00 84 1014.8
20260906123833 25 360 0.0 0.0 0.00 0.00 0.00 84 1014.8
20260906123734 25 360 0.0 0.0 0.00 0.00 0.00 84 1014.8
20260906123654 25 360 0.0 0.0 0.00 0.00 0.00 84 1014.8
20260906123534 25 360 0.0 0.0 0.00 0.00 0.00 84 1014.7
20260906123436 25 360 0.0 0.0 0.00 0.00 0.00 84 1014.7
20260906123336 25 360 0.0 0.0 0.00 0.00 0.00 84 1014.7
20260906123256 25 360 0.0 0.0 0.00 0.00 0.00 84 1014.7
20260906123120 25 360 0.0 0.0 0.00 0.00 0.00 84 1014.5
20260906123021 25 360 0.0 0.0 0.00 0.00 0.00 84 1014.5
20260906122922 25 360 0.0 0.0 0.00 0.00 0.00 84 1014.5
20260906122824 25 360 0.0 0.0 0.00 0.00 0.00 84 1014.4
20260906122724 25 360 0.0 0.0 0.00 0.00 0.00 84 1014.5
20260906122625 25 360 0.0 0.0 0.00 0.00 0.00 84 1014.4
20260906122545 25 360 0.0 0.0 0.00 0.00 0.00 84 1014.3
20260906122449 25 360 0.0 0.0 0.00 0.00 0.00 84 1014.4
20260906122328 25 360 0.0 0.0 0.00 0.00 0.00 84 1014.4
20260906122229 25 360 0.0 1.6 0.00 0.00 0.00 84 1014.3
20260906122129 25 360 0.0 1.6 0.00 0.00 0.00 84 1014.4
20260906122050 25 360 0.0 1.6 0.00 0.00 0.00 84 1014.4
20260906121950 25 360 0.0 1.6 0.00 0.00 0.00 84 1014.4
20260906121829 25 360 0.0 1.6 0.00 0.00 0.00 84 1014.4
20260906121749 25 360 0.0 3.2 0.00 0.00 0.00 84 1014.4
20260906121633 25 360 0.0 3.2 0.00 0.00 0.00 84 1014.4
20260906121553 25 360 0.0 3.2 0.00 0.00 0.00 84 1014.3
20260906121432 25 360 0.0 3.2 0.00 0.00 0.00 84 1014.4
20260906121333 25 360 0.0 3.2 0.00 0.00 0.00 84 1014.3
20260906121233 25 360 0.0 3.2 0.00 0.00 0.00 84 1014.3
20260906121133 25 360 0.0 3.2 0.00 0.00 0.00 84 1014.3
20260906121035 25 360 1.6 3.2 0.00 0.00 0.00 84 1014.4
20260906120940 25 360 1.6 3.2 0.00 0.00 0.00 84 1014.3
20260906120821 25 360 1.6 3.2 0.00 0.00 0.00 84 1014.3
20260906120721 25 360 0.0 3.2 0.00 0.00 0.00 84 1014.4
20260906120622 25 360 0.0 3.2 0.00 0.00 0.00 84 1014.3
20260906120524 25 360 0.0 3.2 0.00 0.00 0.00 84 1014.3
20260906120424 25 360 1.6 3.2 0.00 0.00 0.00 84 1014.3
20260906120324 25 360 1.6 3.2 0.00 0.00 0.00 84 1014.3
20260906120229 25 360 1.6 3.2 0.00 0.00 0.00 84 1014.3
20260906120128 25 360 1.6 3.2 0.00 0.00 0.00 84 1014.2
20260906120028 25 360 1.6 3.2 0.00 0.00 0.00 84 1014.2
20260906115929 25 360 1.6 3.2 0.00 0.00 0.00 84 1014.1
20260906115832 25 360 1.6 3.2 0.00 0.00 0.00 84 1014.2
20260906115730 25 360 1.6 3.2 0.00 0.00 0.00 84 1014.2
20260906115630 25 360 1.6 3.2 0.00 0.00 0.00 84 1014.3
20260906115516 25 360 1.6 3.2 0.00 0.00 0.00 84 1014.2
20260906115437 25 360 0.0 3.2 0.00 0.00 0.00 84 1014.3
20260906115336 25 360 0.0 3.2 0.00 0.00 0.00 84 1014.1
20260906115235 25 360 0.0 3.2 0.00 0.00 0.00 84 1014.2
20260906115135 25 360 0.0 3.2 0.00 0.00 0.00 84 1014.1
20260906115035 25 360 0.0 3.2 0.00 0.00 0.00 84 1014.1
20260906114957 25 360 1.6 3.2 0.00 0.00 0.00 84 1014.2
20260906114855 25 360 1.6 3.2 0.00 0.00 0.00 84 1014.1
20260906114735 25 360 3.2 3.2 0.00 0.00 0.00 84 1014.1
20260906114619 25 360 1.6 3.2 0.00 0.00 0.00 84 1014.1
20260906114519 25 360 1.6 3.2 0.00 0.00 0.00 84 1014.1
20260906114421 25 360 0.0 3.2 0.00 0.00 0.00 84 1014.0
20260906114341 25 360 0.0 0.0 0.00 0.00 0.00 84 1014.0
20260906114221 25 360 0.0 0.0 0.00 0.00 0.00 84 1014.0
20260906114122 25 360 0.0 0.0 0.00 0.00 0.00 84 1013.9
20260906114022 25 360 0.0 0.0 0.00 0.00 0.00 84 1013.8
20260906113927 25 360 0.0 0.0 0.00 0.00 0.00 84 1013.7
20260906113828 25 360 0.0 0.0 0.00 0.00 0.00 84 1013.7
20260906113728 25 360 0.0 0.0 0.00 0.00 0.00 84 1013.7
20260906113628 25 360 0.0 0.0 0.00 0.00 0.00 83 1013.7
20260906113527 25 360 0.0 0.0 0.00 0.00 0.00 83 1013.6
20260906113448 25 360 0.0 0.0 0.00 0.00 0.00 83 1013.6
20260906113347 25 360 0.0 0.0 0.00 0.00 0.00 83 1013.5
20260906113227 25 360 0.0 0.0 0.00 0.00 0.00 83 1013.6
20260906113130 25 360 0.0 0.0 0.00 0.00 0.00 84 1013.6
20260906113031 25 360 0.0 0.0 0.00 0.00 0.00 84 1013.5
20260906112952 25 360 0.0 0.0 0.00 0.00 0.00 84 1013.6
20260906112854 25 360 0.0 0.0 0.00 0.00 0.00 84 1013.5
20260906112731 25 360 0.0 0.0 0.00 0.00 0.00 83 1013.6
20260906112632 25 360 0.0 0.0 0.00 0.00 0.00 83 1013.5
20260906112533 25 360 0.0 0.0 0.00 0.00 0.00 83 1013.7
20260906112419 25 360 0.0 0.0 0.00 0.00 0.00 83 1013.6
20260906112319 25 360 0.0 0.0 0.00 0.00 0.00 83 1013.6
20260906112219 25 360 0.0 0.0 0.00 0.00 0.00 83 1013.5
20260906112120 25 360 0.0 0.0 0.00 0.00 0.00 83 1013.5
20260906112021 25 360 0.0 0.0 0.00 0.00 0.00 83 1013.5
20260906111921 25 360 0.0 0.0 0.00 0.00 0.00 83 1013.5
20260906111827 25 360 0.0 0.0 0.00 0.00 0.00 83 1013.4
20260906111726 25 360 0.0 0.0 0.00 0.00 0.00 83 1013.5
20260906111627 25 360 0.0 0.0 0.00 0.00 0.00 83 1013.5
20260906111528 25 360 0.0 0.0 0.00 0.00 0.00 83 1013.5
20260906111429 25 360 0.0 0.0 0.00 0.00 0.00 83 1013.4
20260906111329 25 360 0.0 0.0 0.00 0.00 0.00 83 1013.4
20260906111229 25 360 0.0 0.0 0.00 0.00 0.00 83 1013.4
20260906111134 26 360 0.0 0.0 0.00 0.00 0.00 83 1013.4
20260906111055 25 360 0.0 0.0 0.00 0.00 0.00 83 1013.4
20260906110934 26 360 0.0 0.0 0.00 0.00 0.00 83 1013.4
20260906110835 26 360 0.0 0.0 0.00 0.00 0.00 83 1013.4
20260906110756 26 360 0.0 0.0 0.00 0.00 0.00 83 1013.4
20260906110635 26 360 0.0 0.0 0.00 0.00 0.00 83 1013.4
20260906110535 26 360 0.0 0.0 0.00 0.00 0.00 83 1013.4
20260906110420 26 360 0.0 0.0 0.00 0.00 0.00 83 1013.3
20260906110321 26 360 0.0 0.0 0.00 0.00 0.00 83 1013.4
20260906110221 25 360 0.0 0.0 0.00 0.00 0.00 83 1013.3
20260906110144 26 360 0.0 0.0 0.00 0.00 0.00 83 1013.3
20260906110023 26 360 0.0 3.2 0.00 0.00 0.00 83 1013.3
20260906105922 25 360 0.0 3.2 0.00 0.00 0.00 83 1013.2
20260906105824 26 360 0.0 3.2 0.00 0.00 0.00 83 1013.2
20260906105727 26 360 0.0 3.2 0.00 0.00 0.00 83 1013.2
20260906105628 25 360 0.0 3.2 0.00 0.00 0.00 83 1013.3
20260906105549 26 360 0.0 4.8 0.00 0.00 0.00 83 1013.2
20260906105429 26 360 0.0 4.8 0.00 0.00 0.00 83 1013.3
20260906105330 25 360 0.0 4.8 0.00 0.00 0.00 83 1013.3
20260906105229 26 360 1.6 4.8 0.00 0.00 0.00 83 1013.3
20260906105150 25 360 1.6 4.8 0.00 0.00 0.00 83 1013.2
20260906105030 26 360 1.6 4.8 0.00 0.00 0.00 83 1013.2
20260906104934 26 360 3.2 4.8 0.00 0.00 0.00 83 1013.1
20260906104855 26 360 3.2 4.8 0.00 0.00 0.00 83 1013.1
20260906104734 26 360 3.2 4.8 0.00 0.00 0.00 83 1013.1
20260906104634 26 360 3.2 4.8 0.00 0.00 0.00 83 1013.1
20260906104554 26 360 3.2 4.8 0.00 0.00 0.00 83 1013.0
20260906104453 26 360 4.8 4.8 0.00 0.00 0.00 83 1013.1
20260906104352 26 360 3.2 4.8 0.00 0.00 0.00 82 1013.1
20260906104232 26 360 3.2 4.8 0.00 0.00 0.00 82 1013.1
20260906104117 26 360 3.2 3.2 0.00 0.00 0.00 82 1013.1
20260906104017 26 360 1.6 3.2 0.00 0.00 0.00 82 1013.1
20260906103917 26 360 1.6 3.2 0.00 0.00 0.00 82 1013.1
20260906103818 26 360 1.6 3.2 0.00 0.00 0.00 82 1013.1
20260906103718 26 360 1.6 3.2 0.00 0.00 0.00 82 1013.1
20260906103639 26 360 1.6 3.2 0.00 0.00 0.00 82 1013.1
20260906103519 26 360 1.6 3.2 0.00 0.00 0.00 82 1013.1
20260906103422 26 360 1.6 3.2 0.00 0.00 0.00 82 1013.1
20260906103323 26 360 1.6 3.2 0.00 0.00 0.00 82 1013.1
20260906103223 26 360 1.6 3.2 0.00 0.00 0.00 82 1013.2
20260906103124 26 360 1.6 3.2 0.00 0.00 0.00 82 1013.1
20260906103025 26 360 0.0 3.2 0.00 0.00 0.00 82 1013.2
20260906102924 26 360 0.0 0.0 0.00 0.00 0.00 82 1013.1
20260906102825 26 360 0.0 0.0 0.00 0.00 0.00 82 1013.2
20260906102729 26 360 0.0 0.0 0.00 0.00 0.00 82 1013.2
20260906102650 26 360 0.0 0.0 0.00 0.00 0.00 82 1013.2
20260906102530 26 360 0.0 0.0 0.00 0.00 0.00 82 1013.2
20260906102430 26 360 0.0 1.6 0.00 0.00 0.00 82 1013.2
20260906102331 26 360 0.0 1.6 0.00 0.00 0.00 82 1013.2
20260906102252 26 360 0.0 1.6 0.00 0.00 0.00 82 1013.2
20260906102132 26 360 0.0 3.2 0.00 0.00 0.00 82 1013.2
20260906102032 26 360 0.0 3.2 0.00 0.00 0.00 82 1013.2
20260906101937 26 360 0.0 4.8 0.00 0.00 0.00 82 1013.2
20260906101816 26 360 0.0 4.8 0.00 0.00 0.00 82 1013.3
20260906101717 26 360 0.0 4.8 0.00 0.00 0.00 82 1013.2
20260906101617 26 360 1.6 4.8 0.00 0.00 0.00 82 1013.2
20260906101537 26 360 1.6 4.8 0.00 0.00 0.00 82 1013.2
20260906101417 26 360 3.2 4.8 0.00 0.00 0.00 82 1013.2
20260906101318 26 360 3.2 4.8 0.00 0.00 0.00 82 1013.2
20260906101222 26 360 3.2 4.8 0.00 0.00 0.00 82 1013.2
20260906101123 26 360 3.2 4.8 0.00 0.00 0.00 82 1013.2
20260906101042 26 360 1.6 3.2 0.00 0.00 0.00 82 1013.2
20260906100921 26 360 1.6 3.2 0.00 0.00 0.00 82 1013.2
20260906100822 26 360 1.6 3.2 0.00 0.00 0.00 82 1013.2
20260906100722 26 360 1.6 3.2 0.00 0.00 0.00 82 1013.1
20260906100643 26 360 0.0 1.6 0.00 0.00 0.00 82 1013.1
20260906100521 26 360 0.0 1.6 0.00 0.00 0.00 82 1013.2
20260906100421 26 360 0.0 1.6 0.00 0.00 0.00 82 1013.2
20260906100326 26 360 0.0 1.6 0.00 0.00 0.00 82 1013.1
20260906100226 26 360 0.0 3.2 0.00 0.00 0.00 82 1013.1
20260906100127 26 360 0.0 3.2 0.00 0.00 0.00 82 1013.1
20260906100027 26 360 0.0 3.2 0.00 0.00 0.00 82 1013.1
20260906095947 26 360 0.0 3.2 0.00 0.00 0.00 82 1013.1
20260906095829 26 360 0.0 4.8 0.00 0.00 0.00 82 1013.1
20260906095729 26 360 0.0 4.8 0.00 0.00 0.00 82 1013.1
20260906095650 26 360 1.6 4.8 0.00 0.00 0.00 82 1013.1
20260906095533 26 360 1.6 4.8 0.00 0.00 0.00 82 1013.1
20260906095433 26 360 1.6 4.8 0.00 0.00 0.00 82 1013.1
20260906095334 26 360 1.6 4.8 0.00 0.00 0.00 82 1013.2
20260906095254 26 360 1.6 4.8 0.00 0.00 0.00 81 1013.2
20260906095134 26 360 1.6 4.8 0.00 0.00 0.00 81 1013.2
20260906095054 26 360 0.0 4.8 0.00 0.00 0.00 81 1013.2
20260906094954 26 360 0.0 4.8 0.00 0.00 0.00 81 1013.2
20260906094854 26 360 1.6 4.8 0.00 0.00 0.00 81 1013.1
20260906094718 26 360 1.6 4.8 0.00 0.00 0.00 81 1013.2
20260906094618 26 360 1.6 4.8 0.00 0.00 0.00 81 1013.2
20260906094520 26 360 1.6 4.8 0.00 0.00 0.00 81 1013.2
20260906094441 26 360 1.6 4.8 0.00 0.00 0.00 81 1013.2
20260906094321 26 360 1.6 4.8 0.00 0.00 0.00 81 1013.3
20260906094222 26 360 1.6 4.8 0.00 0.00 0.00 81 1013.2
20260906094122 26 360 1.6 4.8 0.00 0.00 0.00 81 1013.3
20260906094047 26 360 1.6 4.8 0.00 0.00 0.00 81 1013.3
20260906093926 26 360 1.6 4.8 0.00 0.00 0.00 81 1013.3
20260906093826 26 360 1.6 4.8 0.00 0.00 0.00 81 1013.2
20260906093727 26 360 3.2 4.8 0.00 0.00 0.00 81 1013.3
20260906093627 26 360 3.2 4.8 0.00 0.00 0.00 81 1013.3
20260906093528 26 360 3.2 4.8 0.00 0.00 0.00 81 1013.2
20260906093427 26 360 1.6 4.8 0.00 0.00 0.00 81 1013.3
20260906093332 26 360 1.6 4.8 0.00 0.00 0.00 81 1013.3
20260906093233 26 360 1.6 3.2 0.00 0.00 0.00 81 1013.3
20260906093134 26 360 1.6 3.2 0.00 0.00 0.00 81 1013.4
20260906093035 26 360 1.6 3.2 0.00 0.00 0.00 81 1013.3
20260906092934 26 360 3.2 3.2 0.00 0.00 0.00 81 1013.4
20260906092836 26 360 1.6 4.8 0.00 0.00 0.00 81 1013.3
20260906092719 26 360 1.6 4.8 0.00 0.00 0.00 81 1013.4
20260906092620 26 360 1.6 4.8 0.00 0.00 0.00 81 1013.3
20260906092521 26 360 1.6 4.8 0.00 0.00 0.00 81 1013.3
20260906092421 26 360 0.0 4.8 0.00 0.00 0.00 81 1013.4
20260906092342 26 360 1.6 4.8 0.00 0.00 0.00 81 1013.3
20260906092216 26 360 1.6 4.8 0.00 0.00 0.00 81 1013.4
20260906092121 26 360 3.2 4.8 0.00 0.00 0.00 81 1013.3
20260906092021 26 360 3.2 4.8 0.00 0.00 0.00 81 1013.3
20260906091942 26 360 3.2 4.8 0.00 0.00 0.00 81 1013.4
20260906091816 26 360 1.6 3.2 0.00 0.00 0.00 81 1013.3
20260906091717 26 360 0.0 4.8 0.00 0.00 0.00 81 1013.3
20260906091617 26 360 0.0 4.8 0.00 0.00 0.00 81 1013.3
20260906091517 26 360 1.6 4.8 0.00 0.00 0.00 81 1013.3
20260906091421 26 360 1.6 4.8 0.00 0.00 0.00 81 1013.3
20260906091322 26 360 1.6 4.8 0.00 0.00 0.00 81 1013.3
20260906091223 26 360 1.6 4.8 0.00 0.00 0.00 81 1013.2
20260906091124 26 360 1.6 6.4 0.00 0.00 0.00 81 1013.2
20260906091025 26 360 1.6 6.4 0.00 0.00 0.00 81 1013.2
20260906090926 26 360 1.6 6.4 0.00 0.00 0.00 81 1013.2
20260906090827 26 360 1.6 6.4 0.00 0.00 0.00 82 1013.2
20260906090730 26 360 3.2 6.4 0.00 0.00 0.00 82 1013.2
20260906090651 26 360 3.2 6.4 0.00 0.00 0.00 81 1013.2
20260906090531 26 360 3.2 6.4 0.00 0.00 0.00 80 1013.2
20260906090430 26 360 3.2 6.4 0.00 0.00 0.00 80 1013.1
20260906090332 26 360 1.6 6.4 0.00 0.00 0.00 80 1013.1
20260906090232 26 360 1.6 4.8 0.00 0.00 0.00 80 1013.2
20260906090132 26 360 1.6 4.8 0.00 0.00 0.00 80 1013.1
20260906090017 26 360 1.6 8.0 0.00 0.00 0.00 80 1013.1
20260906085919 26 360 1.6 8.0 0.00 0.00 0.00 80 1013.1
20260906085819 26 360 3.2 8.0 0.00 0.00 0.00 80 1013.2
20260906085718 26 360 3.2 8.0 0.00 0.00 0.00 80 1013.1
20260906085618 26 360 1.6 8.0 0.00 0.00 0.00 80 1013.1
20260906085519 26 360 1.6 8.0 0.00 0.00 0.00 80 1013.1
20260906085419 26 360 1.6 8.0 0.00 0.00 0.00 80 1013.0
20260906085325 26 360 1.6 8.0 0.00 0.00 0.00 80 1013.1
20260906085225 26 360 1.6 8.0 0.00 0.00 0.00 80 1013.1
20260906085125 26 360 1.6 8.0 0.00 0.00 0.00 80 1013.1
20260906085046 26 360 1.6 8.0 0.00 0.00 0.00 80 1013.1
20260906084945 26 360 1.6 8.0 0.00 0.00 0.00 80 1013.1
20260906084825 26 360 1.6 8.0 0.00 0.00 0.00 80 1013.1
20260906084724 26 360 3.2 8.0 0.00 0.00 0.00 80 1013.1
20260906084624 26 360 3.2 8.0 0.00 0.00 0.00 80 1013.2
20260906084528 26 360 3.2 8.0 0.00 0.00 0.00 80 1013.1
20260906084450 26 360 3.2 8.0 0.00 0.00 0.00 80 1013.1
20260906084329 26 360 1.6 6.4 0.00 0.00 0.00 80 1013.1
20260906084228 26 360 1.6 6.4 0.00 0.00 0.00 79 1013.1
20260906084128 26 360 3.2 6.4 0.00 0.00 0.00 79 1013.1
20260906084028 26 360 3.2 6.4 0.00 0.00 0.00 79 1013.1
20260906083929 26 360 3.2 6.4 0.00 0.00 0.00 79 1013.1
20260906083829 26 360 3.2 6.4 0.00 0.00 0.00 79 1013.2
20260906083734 26 360 4.8 6.4 0.00 0.00 0.00 79 1013.2
20260906083635 26 360 3.2 6.4 0.00 0.00 0.00 79 1013.2
20260906083535 26 360 3.2 6.4 0.00 0.00 0.00 79 1013.2
20260906083434 26 360 3.2 6.4 0.00 0.00 0.00 79 1013.2
20260906083335 26 360 3.2 6.4 0.00 0.00 0.00 79 1013.2
20260906083255 26 360 3.2 6.4 0.00 0.00 0.00 79 1013.2
20260906083135 26 360 3.2 6.4 0.00 0.00 0.00 79 1013.2
20260906083020 26 360 3.2 8.0 0.00 0.00 0.00 79 1013.2
20260906082921 26 360 3.2 8.0 0.00 0.00 0.00 79 1013.2
20260906082823 26 360 3.2 8.0 0.00 0.00 0.00 79 1013.2
20260906082722 26 360 3.2 8.0 0.00 0.00 0.00 79 1013.2
20260906082643 26 360 3.2 8.0 0.00 0.00 0.00 79 1013.2
20260906082522 26 360 3.2 8.0 0.00 0.00 0.00 79 1013.3
20260906082442 26 360 4.8 8.0 0.00 0.00 0.00 79 1013.3
20260906082326 26 360 4.8 8.0 0.00 0.00 0.00 79 1013.3
20260906082225 26 360 4.8 8.0 0.00 0.00 0.00 79 1013.3
20260906082126 26 360 4.8 6.4 0.00 0.00 0.00 79 1013.3
20260906082027 26 360 3.2 6.4 0.00 0.00 0.00 79 1013.3
20260906081928 26 360 1.6 6.4 0.00 0.00 0.00 79 1013.3
20260906081827 26 360 1.6 6.4 0.00 0.00 0.00 79 1013.3
20260906081748 26 360 1.6 8.0 0.00 0.00 0.00 79 1013.3
20260906081627 26 360 1.6 8.0 0.00 0.00 0.00 78 1013.3
20260906081552 26 360 3.2 8.0 0.00 0.00 0.00 78 1013.3
20260906081431 26 360 1.6 8.0 0.00 0.00 0.00 78 1013.3
20260906081333 26 360 1.6 8.0 0.00 0.00 0.00 78 1013.3
20260906081233 26 360 3.2 9.7 0.00 0.00 0.00 78 1013.3
20260906081133 27 360 3.2 9.7 0.00 0.00 0.00 78 1013.3
20260906081033 26 360 4.8 9.7 0.00 0.00 0.00 78 1013.4
20260906080934 27 360 4.8 9.7 0.00 0.00 0.00 78 1013.4
20260906080818 27 360 4.8 9.7 0.00 0.00 0.00 78 1013.3
20260906080719 27 360 4.8 9.7 0.00 0.00 0.00 78 1013.4
20260906080619 27 360 4.8 9.7 0.00 0.00 0.00 78 1013.4
20260906080519 27 360 4.8 9.7 0.00 0.00 0.00 78 1013.4
20260906080419 27 360 4.8 9.7 0.00 0.00 0.00 78 1013.4
20260906080339 27 360 3.2 8.0 0.00 0.00 0.00 78 1013.4
20260906080219 27 360 3.2 8.0 0.00 0.00 0.00 78 1013.4
20260906080120 27 360 1.6 8.0 0.00 0.00 0.00 78 1013.5
20260906080024 27 360 1.6 8.0 0.00 0.00 0.00 78 1013.5
20260906075925 27 360 1.6 8.0 0.00 0.00 0.00 78 1013.5
20260906075846 27 360 1.6 9.7 0.00 0.00 0.00 78 1013.4
20260906075725 27 360 1.6 9.7 0.00 0.00 0.00 78 1013.6
20260906075626 27 360 3.2 9.7 0.00 0.00 0.00 78 1013.5
20260906075527 27 360 3.2 9.7 0.00 0.00 0.00 78 1013.5
20260906075447 27 360 3.2 9.7 0.00 0.00 0.00 77 1013.5
20260906075331 27 360 3.2 9.7 0.00 0.00 0.00 77 1013.7
20260906075231 27 360 3.2 9.7 0.00 0.00 0.00 77 1013.6
20260906075131 27 360 3.2 9.7 0.00 0.00 0.00 77 1013.7
20260906075033 27 188 3.2 9.7 0.00 0.00 0.00 77 1013.7
20260906074934 27 360 1.6 9.7 0.00 0.00 0.00 77 1013.7
20260906074834 27 360 1.6 8.0 0.00 0.00 0.00 77 1013.8
20260906074755 27 360 3.2 8.0 0.00 0.00 0.00 77 1013.8
20260906074618 27 360 3.2 8.0 0.00 0.00 0.00 77 1013.7
20260906074539 27 360 3.2 6.4 0.00 0.00 0.00 77 1013.7
20260906074420 27 360 1.6 6.4 0.00 0.00 0.00 77 1013.8
20260906074321 27 360 1.6 6.4 0.00 0.00 0.00 77 1013.8
20260906074242 27 360 1.6 8.0 0.00 0.00 0.00 77 1013.7
20260906074115 27 360 3.2 9.7 0.00 0.00 0.00 77 1013.7
20260906074016 27 360 3.2 9.7 0.00 0.00 0.00 77 1013.8
20260906073921 27 360 3.2 9.7 0.00 0.00 0.00 77 1013.8
20260906073821 27 360 3.2 9.7 0.00 0.00 0.00 77 1013.8
20260906073722 27 360 4.8 9.7 0.00 0.00 0.00 77 1013.8
20260906073622 27 360 4.8 14.5 0.00 0.00 0.00 77 1013.8
20260906073524 27 360 4.8 14.5 0.00 0.00 0.00 77 1013.8
20260906073424 27 360 4.8 14.5 0.00 0.00 0.00 77 1013.8
20260906073325 27 360 4.8 14.5 0.00 0.00 0.00 77 1013.8
20260906073229 27 360 3.2 14.5 0.00 0.00 0.00 77 1013.8
20260906073149 27 360 1.6 14.5 0.00 0.00 0.00 77 1013.8
20260906073029 27 360 1.6 14.5 0.00 0.00 0.00 77 1013.8
20260906072929 27 360 3.2 14.5 0.00 0.00 0.00 77 1013.9
20260906072832 27 360 4.8 14.5 0.00 0.00 0.00 76 1013.8
20260906072731 27 360 4.8 14.5 0.00 0.00 0.00 76 1013.8
20260906072651 27 360 4.8 14.5 0.00 0.00 0.00 76 1013.8
20260906072531 27 360 3.2 9.7 0.00 0.00 0.00 76 1013.9
20260906072436 27 360 3.2 8.0 0.00 0.00 0.00 76 1013.9
20260906072356 27 360 4.8 8.0 0.00 0.00 0.00 76 1013.9
20260906072217 27 360 4.8 8.0 0.00 0.00 0.00 76 1013.8
20260906072118 27 203 3.2 8.0 0.00 0.00 0.00 76 1013.8
20260906072019 27 360 4.8 8.0 0.00 0.00 0.00 76 1013.8
20260906071919 27 360 3.2 8.0 0.00 0.00 0.00 76 1013.9
20260906071840 27 360 1.6 8.0 0.00 0.00 0.00 76 1013.8
20260906071724 27 360 1.6 8.0 0.00 0.00 0.00 76 1013.9
20260906071626 27 360 1.6 8.0 0.00 0.00 0.00 76 1013.9
20260906071527 27 360 1.6 12.9 0.00 0.00 0.00 76 1013.8
20260906071427 27 360 3.2 12.9 0.00 0.00 0.00 76 1013.8
20260906071329 27 360 3.2 12.9 0.00 0.00 0.00 76 1013.9
20260906071229 27 360 4.8 16.1 0.00 0.00 0.00 76 1013.9
20260906071150 27 360 4.8 16.1 0.00 0.00 0.00 76 1013.8
20260906071034 27 360 4.8 16.1 0.00 0.00 0.00 76 1014.0
20260906070935 27 360 4.8 16.1 0.00 0.00 0.00 76 1013.9
20260906070816 27 360 4.8 16.1 0.00 0.00 0.00 76 1013.9
20260906070717 27 360 6.4 16.1 0.00 0.00 0.00 76 1013.9
20260906070619 27 360 8.0 16.1 0.00 0.00 0.00 76 1013.9
20260906070519 27 360 8.0 16.1 0.00 0.00 0.00 76 1014.0
20260906070419 27 190 8.0 16.1 0.00 0.00 0.00 76 1013.9
20260906070324 27 360 4.8 12.9 0.00 0.00 0.00 76 1014.0
20260906070224 27 360 3.2 12.9 0.00 0.00 0.00 76 1014.0
20260906070126 27 360 3.2 12.9 0.00 0.00 0.00 76 1013.9
20260906070046 27 360 3.2 12.9 0.00 0.00 0.00 76 1014.0
20260906065927 27 360 4.8 12.9 0.00 0.00 0.00 76 1014.1
20260906065828 27 360 4.8 12.9 0.00 0.00 0.00 76 1014.1
20260906065728 27 360 4.8 12.9 0.00 0.00 0.00 76 1014.1
20260906065631 27 360 4.8 12.9 0.00 0.00 0.00 76 1014.1
20260906065532 27 360 4.8 12.9 0.00 0.00 0.00 75 1014.1
20260906065431 27 360 4.8 9.7 0.00 0.00 0.00 75 1014.1
20260906065332 27 360 4.8 9.7 0.00 0.00 0.00 75 1014.1
20260906065233 27 360 4.8 14.5 0.00 0.00 0.00 75 1014.2
20260906065133 27 360 4.8 14.5 0.00 0.00 0.00 75 1014.1
20260906065018 27 360 4.8 14.5 0.00 0.00 0.00 75 1014.2
20260906064919 27 360 4.8 14.5 0.00 0.00 0.00 75 1014.2
20260906064841 27 360 3.2 14.5 0.00 0.00 0.00 75 1014.2
20260906064720 28 360 4.8 14.5 0.00 0.00 0.00 75 1014.2
20260906064641 28 360 4.8 14.5 0.00 0.00 0.00 75 1014.3
20260906064540 28 360 6.4 16.1 0.00 0.00 0.00 75 1014.3
20260906064420 28 360 6.4 16.1 0.00 0.00 0.00 75 1014.3
20260906064320 28 360 6.4 16.1 0.00 0.00 0.00 75 1014.3
20260906064225 28 360 6.4 16.1 0.00 0.00 0.00 75 1014.3
20260906064124 28 360 6.4 16.1 0.00 0.00 0.00 75 1014.2
20260906064025 28 360 8.0 16.1 0.00 0.00 0.00 75 1014.3
20260906063925 28 360 8.0 16.1 0.00 0.00 0.00 75 1014.2
20260906063825 28 360 6.4 16.1 0.00 0.00 0.00 75 1014.2
20260906063745 28 360 4.8 16.1 0.00 0.00 0.00 75 1014.2
20260906063646 28 360 4.8 12.9 0.00 0.00 0.00 75 1014.2
20260906063526 28 360 6.4 12.9 0.00 0.00 0.00 75 1014.2
20260906063429 28 360 6.4 12.9 0.00 0.00 0.00 75 1014.2
20260906063331 28 360 6.4 12.9 0.00 0.00 0.00 75 1014.3
20260906063231 28 360 6.4 12.9 0.00 0.00 0.00 74 1014.3
20260906063132 28 360 6.4 12.9 0.00 0.00 0.00 74 1014.2
20260906063034 28 360 4.8 12.9 0.00 0.00 0.00 74 1014.3
20260906062934 28 360 4.8 12.9 0.00 0.00 0.00 74 1014.3
20260906062818 28 360 6.4 12.9 0.00 0.00 0.00 74 1014.3
20260906062718 28 360 4.8 12.9 0.00 0.00 0.00 74 1014.3
20260906062618 28 360 4.8 12.9 0.00 0.00 0.00 74 1014.4
20260906062539 28 360 3.2 9.7 0.00 0.00 0.00 74 1014.4
20260906062417 28 360 3.2 12.9 0.00 0.00 0.00 74 1014.4
20260906062318 28 360 3.2 14.5 0.00 0.00 0.00 74 1014.4
20260906062218 28 360 3.2 14.5 0.00 0.00 0.00 74 1014.4
20260906062123 28 360 3.2 14.5 0.00 0.00 0.00 74 1014.4
20260906062024 28 360 4.8 14.5 0.00 0.00 0.00 74 1014.5
20260906061924 28 360 6.4 14.5 0.00 0.00 0.00 74 1014.5
20260906061825 28 360 6.4 14.5 0.00 0.00 0.00 74 1014.4
20260906061724 28 360 8.0 14.5 0.00 0.00 0.00 74 1014.3
20260906061625 28 360 8.0 14.5 0.00 0.00 0.00 74 1014.4
20260906061526 28 360 8.0 14.5 0.00 0.00 0.00 74 1014.5
20260906061429 28 360 6.4 14.5 0.00 0.00 0.00 74 1014.5
20260906061330 28 360 6.4 14.5 0.00 0.00 0.00 74 1014.5
20260906061231 28 360 6.4 14.5 0.00 0.00 0.00 74 1014.5
20260906061132 28 360 6.4 14.5 0.00 0.00 0.00 74 1014.6
20260906061032 28 360 6.4 14.5 0.00 0.00 0.00 74 1014.6
20260906060933 28 360 6.4 16.1 0.00 0.00 0.00 74 1014.6
20260906060819 28 360 4.8 16.1 0.00 0.00 0.00 74 1014.6
20260906060720 28 360 4.8 16.1 0.00 0.00 0.00 74 1014.6
20260906060620 28 360 4.8 16.1 0.00 0.00 0.00 74 1014.6
20260906060519 28 360 6.4 16.1 0.00 0.00 0.00 74 1014.5
20260906060420 28 360 6.4 16.1 0.00 0.00 0.00 73 1014.6
20260906060320 28 360 6.4 19.3 0.00 0.00 0.00 73 1014.5
20260906060222 28 360 8.0 19.3 0.00 0.00 0.00 73 1014.5
20260906060125 28 227 9.7 19.3 0.00 0.00 0.00 73 1014.6
20260906060026 28 360 9.7 19.3 0.00 0.00 0.00 73 1014.5
20260906055926 28 360 9.7 19.3 0.00 0.00 0.00 73 1014.5
20260906055848 28 360 8.0 19.3 0.00 0.00 0.00 73 1014.6
20260906055727 28 360 8.0 19.3 0.00 0.00 0.00 73 1014.5
20260906055628 28 360 8.0 22.5 0.00 0.00 0.00 73 1014.5
20260906055528 28 360 8.0 22.5 0.00 0.00 0.00 73 1014.4
20260906055433 28 360 8.0 22.5 0.00 0.00 0.00 73 1014.4
20260906055353 28 360 6.4 22.5 0.00 0.00 0.00 73 1014.5
20260906055230 28 360 6.4 22.5 0.00 0.00 0.00 73 1014.4
20260906055131 28 360 8.0 22.5 0.00 0.00 0.00 73 1014.4
20260906055032 28 360 9.7 22.5 0.00 0.00 0.00 73 1014.4
20260906054932 28 360 9.7 22.5 0.00 0.00 0.00 73 1014.4
20260906054834 28 360 9.7 20.9 0.00 0.00 0.00 73 1014.3
20260906054719 28 360 11.3 20.9 0.00 0.00 0.00 73 1014.3
20260906054640 28 360 11.3 20.9 0.00 0.00 0.00 73 1014.3
20260906054520 28 360 11.3 19.3 0.00 0.00 0.00 73 1014.2
20260906054419 28 360 9.7 19.3 0.00 0.00 0.00 73 1014.2
20260906054320 28 360 8.0 19.3 0.00 0.00 0.00 73 1014.1
20260906054222 28 360 9.7 19.3 0.00 0.00 0.00 73 1014.1
20260906054122 28 360 9.7 19.3 0.00 0.00 0.00 73 1014.2
20260906054026 28 360 8.0 19.3 0.00 0.00 0.00 73 1014.2
20260906053927 28 360 4.8 19.3 0.00 0.00 0.00 73 1014.2
20260906053826 28 360 4.8 17.7 0.00 0.00 0.00 73 1014.2
20260906053747 28 192 6.4 17.7 0.00 0.00 0.00 73 1014.2
20260906053627 28 360 6.4 17.7 0.00 0.00 0.00 73 1014.2
20260906053527 28 360 9.7 17.7 0.00 0.00 0.00 73 1014.2
20260906053427 28 360 8.0 17.7 0.00 0.00 0.00 73 1014.2
20260906053347 28 360 8.0 17.7 0.00 0.00 0.00 73 1014.2
20260906053231 28 360 6.4 16.1 0.00 0.00 0.00 72 1014.2
20260906053131 28 360 8.0 16.1 0.00 0.00 0.00 72 1014.2
20260906053032 28 360 8.0 16.1 0.00 0.00 0.00 72 1014.2
20260906052951 28 360 6.4 16.1 0.00 0.00 0.00 72 1014.3
20260906052832 28 360 4.8 16.1 0.00 0.00 0.00 72 1014.3
20260906052732 28 360 4.8 16.1 0.00 0.00 0.00 72 1014.3
20260906052617 28 360 6.4 16.1 0.00 0.00 0.00 72 1014.3
20260906052517 28 360 8.0 20.9 0.00 0.00 0.00 72 1014.2
20260906052419 28 360 8.0 20.9 0.00 0.00 0.00 72 1014.2
20260906052320 28 360 8.0 20.9 0.00 0.00 0.00 72 1014.2
20260906052240 28 360 6.4 20.9 0.00 0.00 0.00 72 1014.3
20260906052120 28 360 4.8 20.9 0.00 0.00 0.00 72 1014.3
20260906052020 28 360 8.0 20.9 0.00 0.00 0.00 72 1014.4
20260906051924 28 360 9.7 20.9 0.00 0.00 0.00 72 1014.3
20260906051824 28 360 11.3 20.9 0.00 0.00 0.00 72 1014.4
20260906051725 28 360 9.7 20.9 0.00 0.00 0.00 72 1014.4
20260906051625 28 360 6.4 17.7 0.00 0.00 0.00 72 1014.4
20260906051526 28 360 8.0 17.7 0.00 0.00 0.00 72 1014.4
20260906051425 28 360 8.0 17.7 0.00 0.00 0.00 72 1014.4
20260906051326 28 360 8.0 17.7 0.00 0.00 0.00 72 1014.4
20260906051226 28 360 6.4 17.7 0.00 0.00 0.00 72 1014.4
20260906051131 28 360 8.0 17.7 0.00 0.00 0.00 72 1014.3
20260906051031 28 360 8.0 17.7 0.00 0.00 0.00 72 1014.4
20260906050932 28 360 8.0 17.7 0.00 0.00 0.00 72 1014.3
20260906050833 28 360 9.7 17.7 0.00 0.00 0.00 72 1014.4
20260906050732 28 360 11.3 24.1 0.00 0.00 0.00 71 1014.4
20260906050633 28 360 9.7 24.1 0.00 0.00 0.00 71 1014.4
20260906050516 28 360 8.0 24.1 0.00 0.00 0.00 71 1014.4
20260906050437 28 360 6.4 24.1 0.00 0.00 0.00 71 1014.5
20260906050317 28 360 4.8 24.1 0.00 0.00 0.00 71 1014.5
20260906050238 28 360 6.4 24.1 0.00 0.00 0.00 71 1014.6
20260906050138 28 360 8.0 24.1 0.00 0.00 0.00 71 1014.6
20260906050039 28 360 9.7 24.1 0.00 0.00 0.00 71 1014.5
20260906045952 28 360 9.7 24.1 0.00 0.00 0.00 71 1014.5
20260906045832 28 360 9.7 24.1 0.00 0.00 0.00 71 1014.5
20260906045731 28 360 9.7 19.3 0.00 0.00 0.00 71 1014.6
20260906045616 28 360 9.7 19.3 0.00 0.00 0.00 71 1014.5
20260906045517 28 360 8.0 19.3 0.00 0.00 0.00 71 1014.5
20260906045418 29 360 8.0 19.3 0.00 0.00 0.00 71 1014.5
20260906045319 29 360 6.4 19.3 0.00 0.00 0.00 71 1014.4
20260906045219 29 360 8.0 24.1 0.00 0.00 0.00 71 1014.4
20260906045119 29 360 9.7 24.1 0.00 0.00 0.00 71 1014.4
20260906045044 29 360 9.7 24.1 0.00 0.00 0.00 71 1014.2
20260906044924 29 360 9.7 24.1 0.00 0.00 0.00 71 1014.3
20260906044844 29 360 6.4 24.1 0.00 0.00 0.00 71 1014.3
20260906044725 29 360 6.4 24.1 0.00 0.00 0.00 71 1014.3
20260906044625 29 360 8.0 24.1 0.00 0.00 0.00 71 1014.3
20260906044525 29 360 9.7 24.1 0.00 0.00 0.00 71 1014.4
20260906044426 29 360 12.9 24.1 0.00 0.00 0.00 71 1014.3
20260906044331 29 360 12.9 24.1 0.00 0.00 0.00 71 1014.4
20260906044231 29 360 12.9 20.9 0.00 0.00 0.00 71 1014.5
20260906044131 29 360 12.9 20.9 0.00 0.00 0.00 71 1014.3
20260906044032 29 360 12.9 20.9 0.00 0.00 0.00 70 1014.4
20260906043932 29 360 12.9 19.3 0.00 0.00 0.00 70 1014.5
20260906043833 29 360 11.3 19.3 0.00 0.00 0.00 70 1014.5
20260906043717 29 360 11.3 19.3 0.00 0.00 0.00 70 1014.5
20260906043618 29 360 9.7 19.3 0.00 0.00 0.00 70 1014.4
20260906043518 29 360 11.3 25.7 0.00 0.00 0.00 70 1014.5
20260906043419 29 360 9.7 25.7 0.00 0.00 0.00 70 1014.5
20260906043339 29 360 11.3 25.7 0.00 0.00 0.00 70 1014.5
20260906043219 29 360 11.3 25.7 0.00 0.00 0.00 70 1014.5
20260906043120 29 360 12.9 25.7 0.00 0.00 0.00 70 1014.6
20260906043025 29 360 12.9 25.7 0.00 0.00 0.00 70 1014.6
20260906042925 29 360 12.9 25.7 0.00 0.00 0.00 70 1014.6
20260906042826 29 360 14.5 25.7 0.00 0.00 0.00 70 1014.6
20260906042727 29 360 14.5 25.7 0.00 0.00 0.00 70 1014.5
20260906042628 29 360 12.9 25.7 0.00 0.00 0.00 70 1014.6
20260906042528 29 360 11.3 25.7 0.00 0.00 0.00 70 1014.5
20260906042430 29 360 11.3 25.7 0.00 0.00 0.00 70 1014.5
20260906042335 29 360 12.9 25.7 0.00 0.00 0.00 69 1014.5
20260906042235 29 360 11.3 25.7 0.00 0.00 0.00 69 1014.5
20260906042136 29 360 11.3 30.6 0.00 0.00 0.00 69 1014.5
20260906042057 29 360 11.3 30.6 0.00 0.00 0.00 69 1014.4
20260906041936 29 360 12.9 30.6 0.00 0.00 0.00 69 1014.4
20260906041836 29 360 12.9 30.6 0.00 0.00 0.00 69 1014.5
20260906041735 30 360 16.1 30.6 0.00 0.00 0.00 69 1014.5
20260906041620 30 360 17.7 30.6 0.00 0.00 0.00 69 1014.5
20260906041520 30 360 17.7 30.6 0.00 0.00 0.00 69 1014.5
20260906041422 30 360 17.7 30.6 0.00 0.00 0.00 69 1014.4
20260906041322 30 360 17.7 32.2 0.00 0.00 0.00 69 1014.4
20260906041222 30 360 16.1 32.2 0.00 0.00 0.00 69 1014.5
20260906041123 30 360 14.5 32.2 0.00 0.00 0.00 69 1014.4
20260906041023 30 360 14.5 32.2 0.00 0.00 0.00 69 1014.4
20260906040927 30 360 12.9 32.2 0.00 0.00 0.00 69 1014.4
20260906040827 30 360 16.1 32.2 0.00 0.00 0.00 69 1014.4
20260906040727 30 360 17.7 32.2 0.00 0.00 0.00 69 1014.4
20260906040647 30 360 16.1 32.2 0.00 0.00 0.00 69 1014.4
20260906040526 30 360 14.5 30.6 0.00 0.00 0.00 68 1014.4
20260906040427 30 360 12.9 27.4 0.00 0.00 0.00 68 1014.4
20260906040327 30 360 12.9 27.4 0.00 0.00 0.00 68 1014.3
20260906040227 30 360 12.9 27.4 0.00 0.00 0.00 68 1014.3
20260906040152 30 360 14.5 27.4 0.00 0.00 0.00 68 1014.3
20260906040030 30 360 14.5 27.4 0.00 0.00 0.00 68 1014.4
20260906035931 30 360 14.5 27.4 0.00 0.00 0.00 68 1014.3
20260906035832 30 360 14.5 29.0 0.00 0.00 0.00 68 1014.2
20260906035731 30 360 14.5 29.0 0.00 0.00 0.00 68 1014.3
20260906035632 30 360 16.1 29.0 0.00 0.00 0.00 68 1014.4
20260906035533 30 360 16.1 29.0 0.00 0.00 0.00 68 1014.3
20260906035452 30 360 16.1 29.0 0.00 0.00 0.00 68 1014.3
20260906035316 30 360 17.7 29.0 0.00 0.00 0.00 67 1014.2
20260906035237 30 360 16.1 29.0 0.00 0.00 0.00 67 1014.2
20260906035117 30 360 16.1 29.0 0.00 0.00 0.00 67 1014.2
20260906035038 30 360 14.5 25.7 0.00 0.00 0.00 67 1014.3
20260906034917 30 360 16.1 25.7 0.00 0.00 0.00 67 1014.3
20260906034838 30 170 17.7 25.7 0.00 0.00 0.00 67 1014.3
20260906034716 30 360 17.7 25.7 0.00 0.00 0.00 67 1014.2
20260906034637 30 360 17.7 25.7 0.00 0.00 0.00 67 1014.3
20260906034521 30 360 19.3 25.7 0.00 0.00 0.00 67 1014.3
20260906034421 30 175 19.3 27.4 0.00 0.00 0.00 67 1014.3
20260906034321 30 360 16.1 27.4 0.00 0.00 0.00 67 1014.3
20260906034222 30 360 16.1 27.4 0.00 0.00 0.00 67 1014.4
20260906034123 30 360 16.1 27.4 0.00 0.00 0.00 67 1014.3
20260906034024 30 360 17.7 32.2 0.00 0.00 0.00 66 1014.4
20260906033925 30 360 17.7 32.2 0.00 0.00 0.00 66 1014.3
20260906033829 30 360 16.1 32.2 0.00 0.00 0.00 66 1014.3
20260906033729 30 360 16.1 32.2 0.00 0.00 0.00 66 1014.3
20260906033630 30 360 16.1 32.2 0.00 0.00 0.00 66 1014.3
20260906033531 30 360 16.1 32.2 0.00 0.00 0.00 66 1014.2
20260906033432 30 360 16.1 32.2 0.00 0.00 0.00 66 1014.2
20260906033332 30 360 14.5 32.2 0.00 0.00 0.00 66 1014.2
20260906033217 30 360 19.3 32.2 0.00 0.00 0.00 65 1014.2
20260906033118 30 360 20.9 32.2 0.00 0.00 0.00 65 1014.3
20260906033039 30 360 20.9 32.2 0.00 0.00 0.00 65 1014.2
20260906032918 30 360 19.3 30.6 0.00 0.00 0.00 65 1014.2
20260906032819 30 360 16.1 27.4 0.00 0.00 0.00 65 1014.1
20260906032720 30 360 14.5 27.4 0.00 0.00 0.00 65 1014.2
20260906032619 30 360 14.5 37.0 0.00 0.00 0.00 65 1014.2
20260906032524 30 360 16.1 37.0 0.00 0.00 0.00 65 1014.2
20260906032425 30 360 17.7 37.0 0.00 0.00 0.00 65 1014.2
20260906032327 30 360 20.9 37.0 0.00 0.00 0.00 64 1014.2
20260906032247 30 360 19.3 37.0 0.00 0.00 0.00 64 1014.2
20260906032127 30 360 19.3 37.0 0.00 0.00 0.00 64 1014.3
20260906032046 30 360 17.7 29.0 0.00 0.00 0.00 64 1014.2
20260906031926 30 360 17.7 29.0 0.00 0.00 0.00 64 1014.3
20260906031831 30 360 17.7 29.0 0.00 0.00 0.00 64 1014.2
20260906031751 30 360 17.7 29.0 0.00 0.00 0.00 64 1014.1
20260906031631 30 360 19.3 29.0 0.00 0.00 0.00 64 1014.2
20260906031530 30 360 19.3 29.0 0.00 0.00 0.00 64 1014.1
20260906031431 30 360 17.7 35.4 0.00 0.00 0.00 64 1014.0
20260906031331 30 360 16.1 35.4 0.00 0.00 0.00 64 1014.0
20260906031232 31 360 14.5 35.4 0.00 0.00 0.00 63 1014.0
20260906031116 31 360 16.1 35.4 0.00 0.00 0.00 63 1014.0
20260906031017 31 360 17.7 35.4 0.00 0.00 0.00 63 1013.9
20260906030917 31 360 19.3 35.4 0.00 0.00 0.00 63 1013.9
20260906030837 31 360 20.9 35.4 0.00 0.00 0.00 63 1013.8
20260906030717 31 360 19.3 35.4 0.00 0.00 0.00 63 1013.9
20260906030616 31 360 19.3 32.2 0.00 0.00 0.00 63 1013.8
20260906030517 31 360 20.9 32.2 0.00 0.00 0.00 62 1013.8
20260906030422 31 360 19.3 29.0 0.00 0.00 0.00 62 1013.7
20260906030323 31 360 19.3 30.6 0.00 0.00 0.00 62 1013.7
20260906030224 31 360 17.7 32.2 0.00 0.00 0.00 61 1013.7
20260906030123 31 360 16.1 32.2 0.00 0.00 0.00 61 1013.5
20260906030044 31 360 17.7 32.2 0.00 0.00 0.00 61 1013.6
20260906025924 31 360 17.7 32.2 0.00 0.00 0.00 60 1013.6
20260906025826 31 360 19.3 32.2 0.00 0.00 0.00 60 1013.6
20260906025729 31 360 20.9 32.2 0.00 0.00 0.00 60 1013.5
20260906025629 31 360 19.3 32.2 0.00 0.00 0.00 60 1013.5
20260906025550 31 360 20.9 32.2 0.00 0.00 0.00 60 1013.5
20260906025430 31 360 19.3 30.6 0.00 0.00 0.00 60 1013.4
20260906025329 31 360 17.7 30.6 0.00 0.00 0.00 59 1013.4
20260906025230 31 360 19.3 30.6 0.00 0.00 0.00 59 1013.4
20260906025131 31 360 19.3 30.6 0.00 0.00 0.00 59 1013.5
20260906025037 31 360 17.7 27.4 0.00 0.00 0.00 59 1013.4
20260906024936 31 360 17.7 27.4 0.00 0.00 0.00 59 1013.4
20260906024817 31 360 17.7 27.4 0.00 0.00 0.00 59 1013.4
20260906024717 31 360 16.1 27.4 0.00 0.00 0.00 59 1013.4
20260906024617 31 360 16.1 27.4 0.00 0.00 0.00 59 1013.3
20260906024518 31 360 14.5 24.1 0.00 0.00 0.00 59 1013.3
20260906024439 31 360 14.5 24.1 0.00 0.00 0.00 59 1013.3
20260906024322 31 360 12.9 24.1 0.00 0.00 0.00 60 1013.4
20260906024222 31 142 11.3 20.9 0.00 0.00 0.00 60 1013.2
20260906024123 31 123 11.3 20.9 0.00 0.00 0.00 60 1013.2
20260906024023 31 360 9.7 20.9 0.00 0.00 0.00 60 1013.2
20260906023924 31 360 9.7 20.9 0.00 0.00 0.00 60 1013.2
20260906023825 31 360 11.3 20.9 0.00 0.00 0.00 60 1013.1
20260906023725 31 360 11.3 20.9 0.00 0.00 0.00 60 1013.1
20260906023646 31 360 9.7 20.9 0.00 0.00 0.00 59 1013.1
20260906023531 31 135 9.7 20.9 0.00 0.00 0.00 60 1013.0
20260906023432 31 360 9.7 20.9 0.00 0.00 0.00 59 1013.0
20260906023352 31 360 9.7 20.9 0.00 0.00 0.00 60 1013.0
20260906023232 31 360 8.0 16.1 0.00 0.00 0.00 59 1012.9
20260906023132 31 360 6.4 16.1 0.00 0.00 0.00 59 1012.9
20260906023032 31 136 8.0 17.7 0.00 0.00 0.00 59 1012.9
20260906022917 31 164 8.0 17.7 0.00 0.00 0.00 59 1012.9
20260906022818 31 360 9.7 20.9 0.00 0.00 0.00 59 1012.9
20260906022739 31 360 8.0 20.9 0.00 0.00 0.00 59 1012.9
20260906022619 31 164 8.0 20.9 0.00 0.00 0.00 59 1012.9
20260906022540 31 360 8.0 20.9 0.00 0.00 0.00 59 1012.9
20260906022418 31 360 8.0 20.9 0.00 0.00 0.00 59 1012.9
20260906022318 31 360 9.7 20.9 0.00 0.00 0.00 59 1012.8
20260906022220 31 360 9.7 20.9 0.00 0.00 0.00 59 1012.8
20260906022124 31 360 11.3 20.9 0.00 0.00 0.00 59 1012.7
20260906022025 31 360 9.7 20.9 0.00 0.00 0.00 59 1012.7
20260906021926 31 360 9.7 20.9 0.00 0.00 0.00 59 1012.7
20260906021826 31 360 9.7 20.9 0.00 0.00 0.00 59 1012.6
20260906021747 31 360 11.3 20.9 0.00 0.00 0.00 58 1012.6
20260906021647 31 117 11.3 20.9 0.00 0.00 0.00 58 1012.6
20260906021527 31 360 9.7 19.3 0.00 0.00 0.00 58 1012.5
20260906021447 31 360 9.7 20.9 0.00 0.00 0.00 58 1012.5
20260906021331 31 360 11.3 20.9 0.00 0.00 0.00 58 1012.5
20260906021231 31 360 12.9 20.9 0.00 0.00 0.00 58 1012.5
20260906021132 31 360 12.9 20.9 0.00 0.00 0.00 58 1012.5
20260906021033 31 360 11.3 20.9 0.00 0.00 0.00 58 1012.5
20260906020934 31 360 11.3 20.9 0.00 0.00 0.00 58 1012.5
20260906020835 31 360 12.9 20.9 0.00 0.00 0.00 58 1012.4
20260906020719 31 360 12.9 20.9 0.00 0.00 0.00 58 1012.4
20260906020621 31 360 11.3 19.3 0.00 0.00 0.00 58 1012.4
20260906020521 31 360 9.7 19.3 0.00 0.00 0.00 57 1012.5
20260906020421 31 360 8.0 19.3 0.00 0.00 0.00 57 1012.4
20260906020322 32 360 8.0 19.3 0.00 0.00 0.00 57 1012.4
20260906020223 32 121 8.0 19.3 0.00 0.00 0.00 57 1012.4
20260906020123 32 360 8.0 19.3 0.00 0.00 0.00 57 1012.4
20260906020048 32 360 8.0 19.3 0.00 0.00 0.00 57 1012.4
20260906015928 32 360 9.7 19.3 0.00 0.00 0.00 57 1012.3
20260906015829 32 360 11.3 19.3 0.00 0.00 0.00 57 1012.4
20260906015729 32 360 11.3 19.3 0.00 0.00 0.00 57 1012.4
20260906015629 32 360 9.7 19.3 0.00 0.00 0.00 57 1012.3
20260906015530 32 360 8.0 19.3 0.00 0.00 0.00 57 1012.3
20260906015431 32 360 6.4 19.3 0.00 0.00 0.00 57 1012.3
20260906015336 32 360 8.0 19.3 0.00 0.00 0.00 57 1012.3
20260906015256 32 360 9.7 19.3 0.00 0.00 0.00 57 1012.3
20260906015116 32 360 11.3 19.3 0.00 0.00 0.00 57 1012.3
20260906015019 32 360 11.3 19.3 0.00 0.00 0.00 57 1012.3
20260906014918 32 360 9.7 17.7 0.00 0.00 0.00 57 1012.3
20260906014819 32 360 8.0 17.7 0.00 0.00 0.00 57 1012.2
20260906014740 32 360 8.0 16.1 0.00 0.00 0.00 57 1012.3
20260906014624 32 360 8.0 17.7 0.00 0.00 0.00 57 1012.3
20260906014524 31 360 8.0 17.7 0.00 0.00 0.00 57 1012.3
20260906014425 32 360 9.7 17.7 0.00 0.00 0.00 57 1012.3
20260906014326 31 360 9.7 17.7 0.00 0.00 0.00 57 1012.3
20260906014227 31 360 9.7 17.7 0.00 0.00 0.00 57 1012.2
20260906014149 31 360 9.7 17.7 0.00 0.00 0.00 57 1012.2
20260906014027 32 360 9.7 17.7 0.00 0.00 0.00 57 1012.2
20260906013931 32 360 9.7 17.7 0.00 0.00 0.00 57 1012.2
20260906013833 32 360 11.3 17.7 0.00 0.00 0.00 57 1012.2
20260906013733 32 360 12.9 17.7 0.00 0.00 0.00 57 1012.2
20260906013633 32 360 11.3 17.7 0.00 0.00 0.00 57 1012.1
20260906013535 32 360 11.3 17.7 0.00 0.00 0.00 57 1012.1
20260906013434 32 360 11.3 17.7 0.00 0.00 0.00 58 1012.1
20260906013334 32 360 9.7 20.9 0.00 0.00 0.00 57 1012.1
20260906013218 32 360 9.7 20.9 0.00 0.00 0.00 57 1012.1
20260906013118 32 360 9.7 20.9 0.00 0.00 0.00 57 1012.0
20260906013038 32 360 9.7 20.9 0.00 0.00 0.00 57 1012.1
20260906012918 32 360 11.3 20.9 0.00 0.00 0.00 57 1012.1
20260906012820 32 360 12.9 20.9 0.00 0.00 0.00 56 1012.1
20260906012719 32 360 14.5 22.5 0.00 0.00 0.00 56 1012.1
20260906012620 32 360 14.5 22.5 0.00 0.00 0.00 56 1012.1
20260906012524 32 360 14.5 22.5 0.00 0.00 0.00 56 1012.1
20260906012425 32 360 14.5 22.5 0.00 0.00 0.00 56 1012.1
20260906012347 32 161 12.9 22.5 0.00 0.00 0.00 56 1012.1
20260906012245 32 360 12.9 22.5 0.00 0.00 0.00 56 1012.1
20260906012145 32 360 12.9 22.5 0.00 0.00 0.00 56 1012.1
20260906012024 32 360 11.3 22.5 0.00 0.00 0.00 56 1012.1
20260906011945 32 360 14.5 22.5 0.00 0.00 0.00 56 1012.1
20260906011845 32 360 14.5 22.5 0.00 0.00 0.00 56 1012.1
20260906011722 32 360 14.5 22.5 0.00 0.00 0.00 56 1012.1
20260906011623 32 360 14.5 25.7 0.00 0.00 0.00 56 1012.2
20260906011527 32 360 12.9 29.0 0.00 0.00 0.00 55 1012.1
20260906011428 32 360 11.3 29.0 0.00 0.00 0.00 55 1012.1
20260906011348 32 360 12.9 29.0 0.00 0.00 0.00 55 1012.1
20260906011227 32 360 14.5 29.0 0.00 0.00 0.00 55 1012.0
20260906011128 32 360 14.5 29.0 0.00 0.00 0.00 55 1012.1
20260906011047 32 360 16.1 29.0 0.00 0.00 0.00 54 1012.1
20260906010947 32 360 19.3 29.0 0.00 0.00 0.00 54 1012.1
20260906010847 32 360 16.1 29.0 0.00 0.00 0.00 54 1012.0
20260906010731 33 360 17.7 29.0 0.00 0.00 0.00 54 1012.1
20260906010632 33 360 19.3 29.0 0.00 0.00 0.00 53 1012.1
20260906010533 33 360 17.7 29.0 0.00 0.00 0.00 53 1012.1
20260906010433 33 360 17.7 29.0 0.00 0.00 0.00 52 1012.1
20260906010334 33 360 16.1 29.0 0.00 0.00 0.00 52 1012.1
20260906010232 33 360 12.9 29.0 0.00 0.00 0.00 52 1012.0
20260906010134 33 360 12.9 27.4 0.00 0.00 0.00 51 1012.0
20260906010039 33 360 14.5 27.4 0.00 0.00 0.00 51 1011.9
20260906005919 33 135 16.1 27.4 0.00 0.00 0.00 50 1012.0
20260906005821 33 360 16.1 27.4 0.00 0.00 0.00 50 1012.0
20260906005721 33 360 16.1 27.4 0.00 0.00 0.00 50 1011.9
20260906005622 33 360 16.1 25.7 0.00 0.00 0.00 49 1012.0
20260906005523 33 360 16.1 25.7 0.00 0.00 0.00 49 1012.0
20260906005423 33 360 14.5 25.7 0.00 0.00 0.00 49 1012.0
20260906005328 33 360 14.5 25.7 0.00 0.00 0.00 49 1012.0
20260906005230 33 360 14.5 25.7 0.00 0.00 0.00 49 1011.8
20260906005128 33 360 14.5 25.7 0.00 0.00 0.00 49 1011.9
20260906005029 33 360 16.1 25.7 0.00 0.00 0.00 49 1011.9
20260906004950 34 360 16.1 25.7 0.00 0.00 0.00 48 1011.8
20260906004829 34 360 16.1 25.7 0.00 0.00 0.00 49 1011.8
20260906004750 34 360 14.5 25.7 0.00 0.00 0.00 49 1011.8
20260906004628 34 360 12.9 25.7 0.00 0.00 0.00 49 1011.9
20260906004553 34 360 12.9 25.7 0.00 0.00 0.00 49 1011.9
20260906004432 34 360 12.9 25.7 0.00 0.00 0.00 48 1011.8
20260906004332 34 360 14.5 25.7 0.00 0.00 0.00 48 1011.8
20260906004233 34 360 14.5 25.7 0.00 0.00 0.00 48 1011.8
20260906004134 34 360 12.9 25.7 0.00 0.00 0.00 48 1011.8
20260906004034 34 360 11.3 27.4 0.00 0.00 0.00 48 1011.8
20260906003919 34 360 11.3 33.8 0.00 0.00 0.00 48 1011.8
20260906003819 34 360 12.9 33.8 0.00 0.00 0.00 48 1011.9
20260906003719 34 360 12.9 33.8 0.00 0.00 0.00 47 1011.8
20260906003620 34 360 12.9 33.8 0.00 0.00 0.00 47 1011.8
20260906003521 34 360 16.1 33.8 0.00 0.00 0.00 47 1011.8
20260906003422 34 360 16.1 33.8 0.00 0.00 0.00 47 1011.8
20260906003322 35 360 16.1 33.8 0.00 0.00 0.00 47 1011.8
20260906003227 35 360 14.5 33.8 0.00 0.00 0.00 47 1011.7
20260906003146 35 360 11.3 33.8 0.00 0.00 0.00 46 1011.8
20260906003026 35 360 6.4 14.5 0.00 0.00 0.00 45 1011.8
20260906002927 35 360 6.4 14.5 0.00 0.00 0.00 45 1011.8
20260906002829 35 360 6.4 14.5 0.00 0.00 0.00 45 1011.7
20260906002728 35 360 6.4 14.5 0.00 0.00 0.00 45 1011.7
20260906002628 35 360 8.0 14.5 0.00 0.00 0.00 45 1011.7
20260906002553 35 360 8.0 14.5 0.00 0.00 0.00 45 1011.7
20260906002433 35 360 8.0 14.5 0.00 0.00 0.00 44 1011.6
20260906002334 35 360 8.0 14.5 0.00 0.00 0.00 44 1011.7
20260906002234 35 360 6.4 12.9 0.00 0.00 0.00 44 1011.6
20260906002135 35 360 4.8 14.5 0.00 0.00 0.00 44 1011.7
20260906002034 35 360 4.8 14.5 0.00 0.00 0.00 44 1011.6
20260906001919 35 360 4.8 14.5 0.00 0.00 0.00 45 1011.7
20260906001819 35 148 6.4 14.5 0.00 0.00 0.00 46 1011.7
20260906001739 35 360 8.0 14.5 0.00 0.00 0.00 45 1011.7
20260906001619 35 360 8.0 14.5 0.00 0.00 0.00 44 1011.6
20260906001519 35 360 9.7 14.5 0.00 0.00 0.00 45 1011.7
20260906001419 35 360 9.7 14.5 0.00 0.00 0.00 45 1011.7
20260906001340 35 360 9.7 14.5 0.00 0.00 0.00 44 1011.8
20260906001220 35 360 8.0 14.5 0.00 0.00 0.00 45 1011.7
20260906001125 35 360 8.0 12.9 0.00 0.00 0.00 44 1011.7
20260906001025 35 360 8.0 12.9 0.00 0.00 0.00 45 1011.7
20260906000925 35 360 8.0 12.9 0.00 0.00 0.00 44 1011.7
20260906000826 35 360 6.4 14.5 0.00 0.00 0.00 45 1011.6
20260906000727 35 360 6.4 14.5 0.00 0.00 0.00 45 1011.7
20260906000628 35 360 6.4 14.5 0.00 0.00 0.00 45 1011.7
20260906000549 35 360 6.4 14.5 0.00 0.00 0.00 45 1011.7
20260906000434 35 360 6.4 14.5 0.00 0.00 0.00 45 1011.7
20260906000333 35 360 6.4 14.5 0.00 0.00 0.00 45 1011.7
20260906000234 35 360 6.4 14.5 0.00 0.00 0.00 45 1011.6
20260906000134 35 126 8.0 16.1 0.00 0.00 0.00 45 1011.6
20260906000034 35 360 9.7 16.1 0.00 0.00 0.00 45 1011.6
20260905235935 35 360 8.0 16.1 0.00 0.00 0.00 45 1011.6
20260905235820 35 360 8.0 16.1 0.00 0.00 0.00 45 1011.7
20260905235720 35 360 8.0 16.1 0.00 0.00 0.00 45 1011.6
20260905235621 35 360 8.0 16.1 0.00 0.00 0.00 45 1011.7
20260905235522 35 360 9.7 16.1 0.00 0.00 0.00 45 1011.7
20260905235422 35 360 8.0 16.1 0.00 0.00 0.00 45 1011.6
20260905235323 35 360 8.0 16.1 0.00 0.00 0.00 46 1011.6
20260905235244 35 360 6.4 16.1 0.00 0.00 0.00 46 1011.7
20260905235127 35 360 4.8 12.9 0.00 0.00 0.00 46 1011.7
20260905235028 35 360 6.4 12.9 0.00 0.00 0.00 46 1011.7
20260905234929 35 360 6.4 14.5 0.00 0.00 0.00 46 1011.6
20260905234849 35 360 6.4 16.1 0.00 0.00 0.00 45 1011.7
20260905234729 35 360 6.4 16.1 0.00 0.00 0.00 45 1011.7
20260905234631 35 360 6.4 16.1 0.00 0.00 0.00 45 1011.6
20260905234531 35 360 8.0 16.1 0.00 0.00 0.00 45 1011.6
20260905234416 35 360 8.0 16.1 0.00 0.00 0.00 45 1011.6
20260905234316 35 360 9.7 16.1 0.00 0.00 0.00 45 1011.6
20260905234217 35 360 9.7 16.1 0.00 0.00 0.00 45 1011.7
20260905234117 35 360 8.0 16.1 0.00 0.00 0.00 45 1011.6
20260905234018 35 360 8.0 16.1 0.00 0.00 0.00 45 1011.6
20260905233917 35 360 8.0 16.1 0.00 0.00 0.00 45 1011.6
20260905233822 35 360 9.7 16.1 0.00 0.00 0.00 45 1011.7
20260905233721 35 360 9.7 16.1 0.00 0.00 0.00 44 1011.7
20260905233622 35 360 9.7 17.7 0.00 0.00 0.00 44 1011.7
20260905233543 35 360 9.7 17.7 0.00 0.00 0.00 44 1011.7
20260905233442 35 360 11.3 17.7 0.00 0.00 0.00 44 1011.6
20260905233322 35 360 9.7 17.7 0.00 0.00 0.00 44 1011.7
20260905233242 35 360 9.7 17.7 0.00 0.00 0.00 44 1011.6
20260905233123 35 360 9.7 17.7 0.00 0.00 0.00 44 1011.6
20260905233023 35 360 9.7 17.7 0.00 0.00 0.00 43 1011.6
20260905232948 35 360 9.7 17.7 0.00 0.00 0.00 43 1011.5
20260905232845 35 360 11.3 17.7 0.00 0.00 0.00 43 1011.7
20260905232722 35 360 11.3 17.7 0.00 0.00 0.00 43 1011.6
20260905232623 35 360 11.3 17.7 0.00 0.00 0.00 42 1011.5
20260905232524 35 360 9.7 17.7 0.00 0.00 0.00 43 1011.6
20260905232424 35 360 8.0 17.7 0.00 0.00 0.00 43 1011.6
20260905232325 35 360 8.0 17.7 0.00 0.00 0.00 43 1011.6
20260905232225 35 360 8.0 17.7 0.00 0.00 0.00 43 1011.6
20260905232130 35 360 9.7 17.7 0.00 0.00 0.00 42 1011.6
20260905232030 35 73 9.7 17.7 0.00 0.00 0.00 42 1011.6
20260905231930 36 360 8.0 17.7 0.00 0.00 0.00 41 1011.6
20260905231831 36 86 9.7 17.7 0.00 0.00 0.00 41 1011.6
20260905231732 36 360 9.7 17.7 0.00 0.00 0.00 42 1011.6
20260905231652 36 360 9.7 17.7 0.00 0.00 0.00 42 1011.7
20260905231531 36 360 9.7 17.7 0.00 0.00 0.00 42 1011.7
20260905231456 36 360 6.4 14.5 0.00 0.00 0.00 42 1011.7
20260905231336 35 360 4.8 12.9 0.00 0.00 0.00 42 1011.7
20260905231235 35 360 4.8 9.7 0.00 0.00 0.00 42 1011.6
20260905231136 35 360 4.8 9.7 0.00 0.00 0.00 41 1011.6
20260905231017 35 360 6.4 9.7 0.00 0.00 0.00 41 1011.7
20260905230918 35 360 6.4 16.1 0.00 0.00 0.00 41 1011.7
20260905230818 35 360 8.0 16.1 0.00 0.00 0.00 41 1011.6
20260905230723 36 360 6.4 16.1 0.00 0.00 0.00 41 1011.6
20260905230626 36 99 6.4 16.1 0.00 0.00 0.00 41 1011.6
20260905230526 36 360 6.4 16.1 0.00 0.00 0.00 41 1011.6
20260905230426 36 360 8.0 16.1 0.00 0.00 0.00 41 1011.6
20260905230326 36 360 8.0 16.1 0.00 0.00 0.00 41 1011.6
20260905230227 36 360 8.0 16.1 0.00 0.00 0.00 41 1011.6
20260905230128 36 360 6.4 14.5 0.00 0.00 0.00 41 1011.6
20260905230031 36 360 6.4 9.7 0.00 0.00 0.00 41 1011.6
20260905225932 36 360 4.8 16.1 0.00 0.00 0.00 41 1011.6
20260905225854 36 360 4.8 16.1 0.00 0.00 0.00 41 1011.6
20260905225732 36 360 4.8 16.1 0.00 0.00 0.00 41 1011.6
20260905225633 36 360 4.8 16.1 0.00 0.00 0.00 40 1011.6
20260905225533 36 140 4.8 16.1 0.00 0.00 0.00 40 1011.5
20260905225417 36 360 6.4 16.1 0.00 0.00 0.00 40 1011.6
20260905225318 36 360 8.0 16.1 0.00 0.00 0.00 40 1011.6
20260905225219 36 360 8.0 16.1 0.00 0.00 0.00 40 1011.5
20260905225119 36 360 8.0 16.1 0.00 0.00 0.00 40 1011.6
20260905225019 36 360 6.4 12.9 0.00 0.00 0.00 40 1011.6
20260905224919 36 360 4.8 9.7 0.00 0.00 0.00 40 1011.6
20260905224819 36 360 4.8 9.7 0.00 0.00 0.00 40 1011.6
20260905224725 36 360 3.2 9.7 0.00 0.00 0.00 40 1011.6
20260905224624 36 360 1.6 8.0 0.00 0.00 0.00 40 1011.6
20260905224524 36 360 1.6 6.4 0.00 0.00 0.00 40 1011.5
20260905224425 35 360 3.2 6.4 0.00 0.00 0.00 40 1011.6
20260905224324 35 87 3.2 6.4 0.00 0.00 0.00 40 1011.6
20260905224225 35 88 4.8 8.0 0.00 0.00 0.00 40 1011.6
20260905224126 35 86 4.8 8.0 0.00 0.00 0.00 40 1011.6
20260905224031 35 87 4.8 9.7 0.00 0.00 0.00 40 1011.5
20260905223932 35 89 4.8 9.7 0.00 0.00 0.00 40 1011.5
20260905223832 35 360 3.2 9.7 0.00 0.00 0.00 40 1011.5
20260905223733 35 360 3.2 9.7 0.00 0.00 0.00 40 1011.5
20260905223632 35 112 4.8 9.7 0.00 0.00 0.00 40 1011.6
20260905223533 35 360 4.8 12.9 0.00 0.00 0.00 39 1011.4
20260905223417 36 113 6.4 12.9 0.00 0.00 0.00 40 1011.5
20260905223317 36 114 6.4 12.9 0.00 0.00 0.00 39 1011.5
20260905223218 36 360 6.4 12.9 0.00 0.00 0.00 40 1011.5
20260905223119 36 360 4.8 12.9 0.00 0.00 0.00 39 1011.5
20260905223020 36 360 3.2 12.9 0.00 0.00 0.00 39 1011.6
20260905222920 36 360 3.2 12.9 0.00 0.00 0.00 39 1011.6
20260905222822 36 360 3.2 12.9 0.00 0.00 0.00 39 1011.6
20260905222745 36 121 4.8 12.9 0.00 0.00 0.00 39 1011.7
20260905222625 36 360 6.4 12.9 0.00 0.00 0.00 40 1011.7
20260905222526 36 86 6.4 12.9 0.00 0.00 0.00 40 1011.6
20260905222425 36 360 4.8 9.7 0.00 0.00 0.00 40 1011.6
20260905222326 36 360 4.8 9.7 0.00 0.00 0.00 39 1011.5
20260905222227 36 360 3.2 12.9 0.00 0.00 0.00 39 1011.6
20260905222127 36 360 3.2 12.9 0.00 0.00 0.00 40 1011.6
20260905222031 36 360 3.2 12.9 0.00 0.00 0.00 39 1011.7
20260905221952 36 360 3.2 12.9 0.00 0.00 0.00 39 1011.7
20260905221830 36 360 4.8 12.9 0.00 0.00 0.00 39 1011.6
20260905221731 36 360 6.4 12.9 0.00 0.00 0.00 39 1011.7
20260905221632 36 360 6.4 12.9 0.00 0.00 0.00 39 1011.7
20260905221533 36 360 6.4 12.9 0.00 0.00 0.00 39 1011.7
20260905221433 36 360 4.8 12.9 0.00 0.00 0.00 39 1011.8
20260905221318 36 360 3.2 8.0 0.00 0.00 0.00 38 1011.7
20260905221219 36 360 3.2 8.0 0.00 0.00 0.00 38 1011.7
20260905221120 36 360 3.2 8.0 0.00 0.00 0.00 38 1011.8
20260905221021 36 360 3.2 8.0 0.00 0.00 0.00 39 1011.8
20260905220921 37 360 3.2 12.9 0.00 0.00 0.00 39 1011.8
20260905220821 37 360 3.2 12.9 0.00 0.00 0.00 39 1011.7
20260905220725 36 360 3.2 12.9 0.00 0.00 0.00 39 1011.7
20260905220626 36 360 4.8 12.9 0.00 0.00 0.00 39 1011.9
20260905220527 36 360 4.8 12.9 0.00 0.00 0.00 40 1011.8
20260905220446 36 360 4.8 12.9 0.00 0.00 0.00 40 1011.7
20260905220326 36 360 6.4 12.9 0.00 0.00 0.00 40 1011.8
20260905220226 36 360 6.4 12.9 0.00 0.00 0.00 39 1011.8
20260905220127 36 360 6.4 12.9 0.00 0.00 0.00 40 1011.8
20260905220032 36 360 3.2 12.9 0.00 0.00 0.00 39 1011.8
20260905215932 36 360 3.2 12.9 0.00 0.00 0.00 39 1011.8
20260905215835 36 360 4.8 14.5 0.00 0.00 0.00 39 1011.8
20260905215735 36 360 4.8 14.5 0.00 0.00 0.00 39 1011.8
20260905215636 36 360 4.8 14.5 0.00 0.00 0.00 39 1011.8
20260905215535 36 360 3.2 19.3 0.00 0.00 0.00 40 1011.8
20260905215435 36 360 4.8 19.3 0.00 0.00 0.00 40 1011.8
20260905215319 36 360 6.4 19.3 0.00 0.00 0.00 40 1011.8
20260905215220 36 360 8.0 19.3 0.00 0.00 0.00 39 1011.9
20260905215120 36 360 9.7 19.3 0.00 0.00 0.00 40 1011.8
20260905215021 36 360 9.7 19.3 0.00 0.00 0.00 40 1011.9
20260905214921 36 360 12.9 19.3 0.00 0.00 0.00 40 1011.9
20260905214821 36 360 14.5 19.3 0.00 0.00 0.00 39 1011.9
20260905214719 36 360 14.5 19.3 0.00 0.00 0.00 39 1011.9
20260905214624 36 360 12.9 19.3 0.00 0.00 0.00 39 1011.8
20260905214524 36 360 9.7 16.1 0.00 0.00 0.00 39 1011.9
20260905214425 37 360 8.0 12.9 0.00 0.00 0.00 38 1011.8
20260905214326 37 360 6.4 9.7 0.00 0.00 0.00 38 1011.8
20260905214226 37 360 4.8 9.7 0.00 0.00 0.00 38 1011.8
20260905214127 37 360 3.2 9.7 0.00 0.00 0.00 38 1011.9
20260905214028 37 360 1.6 9.7 0.00 0.00 0.00 38 1011.8
20260905213931 37 360 3.2 9.7 0.00 0.00 0.00 39 1011.8
20260905213831 36 360 3.2 9.7 0.00 0.00 0.00 39 1011.9
20260905213731 36 360 3.2 9.7 0.00 0.00 0.00 39 1011.8
20260905213652 36 360 4.8 8.0 0.00 0.00 0.00 39 1011.9
20260905213552 36 360 4.8 8.0 0.00 0.00 0.00 39 1011.9
20260905213451 36 360 3.2 12.9 0.00 0.00 0.00 39 1011.9
20260905213331 36 360 3.2 12.9 0.00 0.00 0.00 39 1011.9
20260905213232 36 360 3.2 12.9 0.00 0.00 0.00 39 1011.9
20260905213117 36 360 3.2 12.9 0.00 0.00 0.00 39 1011.9
20260905213017 36 360 4.8 17.7 0.00 0.00 0.00 39 1011.8
20260905212919 36 360 4.8 17.7 0.00 0.00 0.00 39 1011.9
20260905212819 36 360 6.4 17.7 0.00 0.00 0.00 39 1011.9
20260905212739 36 360 6.4 17.7 0.00 0.00 0.00 39 1011.9
20260905212617 36 360 4.8 17.7 0.00 0.00 0.00 40 1011.8
20260905212537 36 360 4.8 17.7 0.00 0.00 0.00 40 1011.9
20260905212417 36 360 8.0 17.7 0.00 0.00 0.00 40 1011.9
20260905212320 36 360 9.7 17.7 0.00 0.00 0.00 40 1011.8
20260905212220 36 360 9.7 17.7 0.00 0.00 0.00 39 1011.9
20260905212118 36 360 6.4 19.3 0.00 0.00 0.00 40 1011.9
20260905212018 36 360 6.4 19.3 0.00 0.00 0.00 39 1011.8
20260905211938 36 107 8.0 22.5 0.00 0.00 0.00 40 1011.9
20260905211857 36 360 9.7 22.5 0.00 0.00 0.00 40 1011.9
20260905211736 36 360 9.7 22.5 0.00 0.00 0.00 39 1011.9
20260905211621 36 360 8.0 22.5 0.00 0.00 0.00 40 1011.9
20260905211521 36 360 4.8 22.5 0.00 0.00 0.00 41 1012.0
20260905211422 35 360 6.4 22.5 0.00 0.00 0.00 41 1011.9
20260905211322 35 360 9.7 22.5 0.00 0.00 0.00 41 1012.0
20260905211223 35 360 11.3 22.5 0.00 0.00 0.00 41 1012.1
20260905211123 36 360 11.3 22.5 0.00 0.00 0.00 41 1012.0
20260905211024 36 360 9.7 17.7 0.00 0.00 0.00 40 1012.1
20260905210929 36 360 8.0 20.9 0.00 0.00 0.00 40 1012.1
20260905210849 36 360 6.4 20.9 0.00 0.00 0.00 40 1012.1
20260905210727 36 360 4.8 20.9 0.00 0.00 0.00 40 1012.0
20260905210628 36 360 4.8 20.9 0.00 0.00 0.00 41 1012.0
20260905210528 36 360 4.8 20.9 0.00 0.00 0.00 41 1012.0
20260905210430 36 360 6.4 20.9 0.00 0.00 0.00 41 1012.0
20260905210330 36 360 4.8 20.9 0.00 0.00 0.00 41 1012.0
20260905210216 36 360 4.8 20.9 0.00 0.00 0.00 41 1012.1
20260905210116 36 360 6.4 20.9 0.00 0.00 0.00 41 1012.1
20260905210017 36 360 6.4 20.9 0.00 0.00 0.00 41 1012.1
20260905205917 36 360 6.4 17.7 0.00 0.00 0.00 41 1012.1
20260905205818 36 360 8.0 17.7 0.00 0.00 0.00 42 1012.1
20260905205718 36 360 8.0 24.1 0.00 0.00 0.00 41 1012.1
20260905205619 36 360 6.4 24.1 0.00 0.00 0.00 41 1012.1
20260905205523 36 360 4.8 24.1 0.00 0.00 0.00 41 1012.1
20260905205423 36 360 3.2 24.1 0.00 0.00 0.00 42 1012.1
20260905205323 36 360 6.4 24.1 0.00 0.00 0.00 41 1012.2
20260905205225 36 360 6.4 24.1 0.00 0.00 0.00 42 1012.3
20260905205126 36 360 9.7 24.1 0.00 0.00 0.00 41 1012.3
20260905205026 35 360 11.3 24.1 0.00 0.00 0.00 42 1012.3
20260905204946 36 360 9.7 24.1 0.00 0.00 0.00 41 1012.3
20260905204849 36 360 6.4 24.1 0.00 0.00 0.00 41 1012.3
20260905204749 36 360 4.8 12.9 0.00 0.00 0.00 42 1012.3
20260905204629 36 360 4.8 12.9 0.00 0.00 0.00 42 1012.4
20260905204549 36 360 6.4 16.1 0.00 0.00 0.00 42 1012.4
20260905204428 36 360 6.4 16.1 0.00 0.00 0.00 41 1012.4
20260905204328 36 360 6.4 16.1 0.00 0.00 0.00 42 1012.4
20260905204228 36 360 4.8 19.3 0.00 0.00 0.00 42 1012.5
20260905204149 36 360 3.2 19.3 0.00 0.00 0.00 42 1012.5
20260905204028 36 360 3.2 19.3 0.00 0.00 0.00 42 1012.5
20260905203932 35 360 4.8 22.5 0.00 0.00 0.00 42 1012.5
20260905203833 35 360 8.0 22.5 0.00 0.00 0.00 42 1012.5
20260905203733 35 360 8.0 22.5 0.00 0.00 0.00 42 1012.5
20260905203633 35 360 8.0 22.5 0.00 0.00 0.00 42 1012.6
20260905203534 35 360 9.7 22.5 0.00 0.00 0.00 43 1012.5
20260905203454 35 360 11.3 22.5 0.00 0.00 0.00 43 1012.5
20260905203354 35 360 14.5 22.5 0.00 0.00 0.00 42 1012.6
20260905203217 36 360 11.3 22.5 0.00 0.00 0.00 42 1012.6
20260905203137 36 360 8.0 22.5 0.00 0.00 0.00 41 1012.7
20260905203037 36 360 4.8 17.7 0.00 0.00 0.00 42 1012.7
20260905202916 36 360 4.8 17.7 0.00 0.00 0.00 42 1012.6
20260905202818 36 360 6.4 17.7 0.00 0.00 0.00 42 1012.7
20260905202717 36 360 6.4 17.7 0.00 0.00 0.00 42 1012.7
20260905202618 36 360 6.4 17.7 0.00 0.00 0.00 42 1012.8
20260905202523 36 360 6.4 17.7 0.00 0.00 0.00 42 1012.8
20260905202423 36 360 6.4 17.7 0.00 0.00 0.00 43 1012.7
20260905202325 36 132 8.0 17.7 0.00 0.00 0.00 42 1012.8
20260905202225 36 360 9.7 17.7 0.00 0.00 0.00 42 1012.8
20260905202125 36 360 9.7 17.7 0.00 0.00 0.00 41 1012.9
20260905202026 36 360 8.0 17.7 0.00 0.00 0.00 41 1012.8
20260905201926 36 360 6.4 17.7 0.00 0.00 0.00 42 1012.9
20260905201831 36 360 4.8 12.9 0.00 0.00 0.00 41 1012.8
20260905201731 36 360 4.8 12.9 0.00 0.00 0.00 41 1012.8
20260905201631 37 360 3.2 9.7 0.00 0.00 0.00 41 1012.9
20260905201532 37 360 3.2 9.7 0.00 0.00 0.00 41 1012.8
20260905201433 37 360 3.2 9.7 0.00 0.00 0.00 40 1012.9
20260905201334 37 360 1.6 14.5 0.00 0.00 0.00 40 1012.9
20260905201218 37 360 1.6 14.5 0.00 0.00 0.00 40 1012.8
20260905201119 36 360 1.6 14.5 0.00 0.00 0.00 40 1012.9
20260905201019 36 360 1.6 14.5 0.00 0.00 0.00 41 1013.0
20260905200920 36 360 1.6 14.5 0.00 0.00 0.00 40 1013.0
20260905200820 36 360 3.2 14.5 0.00 0.00 0.00 41 1013.1
20260905200720 36 360 4.8 14.5 0.00 0.00 0.00 42 1013.0
20260905200625 36 360 6.4 14.5 0.00 0.00 0.00 41 1013.1
20260905200526 36 360 6.4 14.5 0.00 0.00 0.00 41 1013.1
20260905200426 36 360 6.4 20.9 0.00 0.00 0.00 41 1013.1
20260905200327 36 360 4.8 20.9 0.00 0.00 0.00 42 1013.1
20260905200228 36 360 3.2 20.9 0.00 0.00 0.00 42 1013.1
20260905200149 36 360 4.8 20.9 0.00 0.00 0.00 42 1013.1
20260905200028 36 360 4.8 20.9 0.00 0.00 0.00 42 1013.1
20260905195933 36 360 6.4 20.9 0.00 0.00 0.00 42 1013.1
20260905195854 36 360 9.7 20.9 0.00 0.00 0.00 42 1013.2
20260905195732 36 360 9.7 20.9 0.00 0.00 0.00 42 1013.2
20260905195632 36 360 11.3 20.9 0.00 0.00 0.00 42 1013.2
20260905195533 36 360 11.3 20.9 0.00 0.00 0.00 42 1013.2
20260905195433 36 360 8.0 17.7 0.00 0.00 0.00 41 1013.2
20260905195334 36 360 8.0 17.7 0.00 0.00 0.00 41 1013.3
20260905195218 36 360 6.4 19.3 0.00 0.00 0.00 42 1013.3
20260905195119 36 360 4.8 19.3 0.00 0.00 0.00 42 1013.3
20260905195039 36 360 4.8 19.3 0.00 0.00 0.00 42 1013.3
20260905194918 36 360 4.8 19.3 0.00 0.00 0.00 43 1013.3
20260905194819 35 360 6.4 19.3 0.00 0.00 0.00 42 1013.3
20260905194719 36 360 6.4 19.3 0.00 0.00 0.00 42 1013.4
20260905194619 36 360 6.4 19.3 0.00 0.00 0.00 42 1013.3
20260905194524 36 360 6.4 19.3 0.00 0.00 0.00 42 1013.4
20260905194425 36 360 4.8 19.3 0.00 0.00 0.00 42 1013.4
20260905194325 36 360 4.8 16.1 0.00 0.00 0.00 42 1013.4
20260905194226 36 360 4.8 16.1 0.00 0.00 0.00 42 1013.4
20260905194128 36 360 4.8 16.1 0.00 0.00 0.00 42 1013.4
20260905194029 36 360 4.8 16.1 0.00 0.00 0.00 42 1013.4
20260905193929 36 360 6.4 16.1 0.00 0.00 0.00 42 1013.4
20260905193854 36 360 4.8 16.1 0.00 0.00 0.00 43 1013.4
20260905193732 36 360 4.8 14.5 0.00 0.00 0.00 43 1013.5
20260905193653 36 360 4.8 14.5 0.00 0.00 0.00 42 1013.5
20260905193533 36 360 4.8 14.5 0.00 0.00 0.00 43 1013.5